Observation data for Wall on 09/10/2017      Previous  Date       Current Mesonet Observations  Soil Data  Daily Summary Page  Observations in Plain Language
KWA1 100500Z 11005KT 20/11 A3017 RMK A01 T01960111  RH  058%=      5-min Rain = 0
KWA1 100501Z 11006KT 20/11 A3017 RMK A01 T01960111  RH  058%=      5-min Rain = 0
KWA1 100502Z 10007KT 20/11 A3017 RMK A01 T01960110  RH  058%=      5-min Rain = 0
KWA1 100503Z 11007KT 20/11 A3017 RMK A01 T01960110  RH  057%=      5-min Rain = 0
KWA1 100504Z 10006KT 20/11 A3017 RMK A01 T01970111  RH  057%=      5-min Rain = 0
KWA1 100505Z 10006KT 20/11 A3017 RMK A01 T01970111  RH  057%=      5-min Rain = 0
KWA1 100506Z 10006KT 20/11 A3017 RMK A01 T01960111  RH  058%=      5-min Rain = 0
KWA1 100507Z 10006KT 20/11 A3017 RMK A01 T01950111  RH  058%=      5-min Rain = 0
KWA1 100508Z 10006KT 19/11 A3017 RMK A01 T01930111  RH  059%=      5-min Rain = 0
KWA1 100509Z 10006KT 19/11 A3017 RMK A01 T01910111  RH  060%=      5-min Rain = 0
KWA1 100510Z 10006KT 19/11 A3017 RMK A01 T01900111  RH  060%=      5-min Rain = 0
KWA1 100511Z 10006KT 19/11 A3017 RMK A01 T01890111  RH  060%=      5-min Rain = 0
KWA1 100512Z 10006KT 19/11 A3017 RMK A01 T01890111  RH  061%=      5-min Rain = 0
KWA1 100513Z 10006KT 19/11 A3017 RMK A01 T01870111  RH  061%=      5-min Rain = 0
KWA1 100514Z 10006KT 19/11 A3017 RMK A01 T01870112  RH  061%=      5-min Rain = 0
KWA1 100515Z 10006KT 19/11 A3017 RMK A01 T01870111  RH  061%=      5-min Rain = 0
KWA1 100516Z 10007KT 19/11 A3017 RMK A01 T01870112  RH  062%=      5-min Rain = 0
KWA1 100517Z 10006KT 19/11 A3017 RMK A01 T01870111  RH  061%=      5-min Rain = 0
KWA1 100518Z 10006KT 19/11 A3017 RMK A01 T01870111  RH  061%=      5-min Rain = 0
KWA1 100519Z 10006KT 19/11 A3017 RMK A01 T01860112  RH  062%=      5-min Rain = 0
KWA1 100520Z 10006KT 19/11 A3017 RMK A01 T01850112  RH  062%=      5-min Rain = 0
KWA1 100521Z 09006KT 18/11 A3017 RMK A01 T01840112  RH  063%=      5-min Rain = 0
KWA1 100522Z 10006KT 18/11 A3017 RMK A01 T01820112  RH  064%=      5-min Rain = 0
KWA1 100523Z 10007KT 18/11 A3017 RMK A01 T01810112  RH  064%=      5-min Rain = 0
KWA1 100524Z 10006KT 18/11 A3017 RMK A01 T01800112  RH  065%=      5-min Rain = 0
KWA1 100525Z 10007KT 18/11 A3017 RMK A01 T01790112  RH  065%=      5-min Rain = 0
KWA1 100526Z 10006KT 18/11 A3017 RMK A01 T01790112  RH  065%=      5-min Rain = 0
KWA1 100527Z 10006KT 18/11 A3017 RMK A01 T01800112  RH  065%=      5-min Rain = 0
KWA1 100528Z 11006KT 18/11 A3017 RMK A01 T01800112  RH  064%=      5-min Rain = 0
KWA1 100529Z 11006KT 18/11 A3017 RMK A01 T01810111  RH  064%=      5-min Rain = 0
KWA1 100530Z 10006KT 18/11 A3017 RMK A01 T01810111  RH  064%=      5-min Rain = 0
KWA1 100531Z 10006KT 18/11 A3017 RMK A01 T01820111  RH  063%=      5-min Rain = 0
KWA1 100532Z 11006KT 18/11 A3017 RMK A01 T01820111  RH  063%=      5-min Rain = 0
KWA1 100533Z 11006KT 18/11 A3017 RMK A01 T01820112  RH  063%=      5-min Rain = 0
KWA1 100534Z 11005KT 18/11 A3017 RMK A01 T01820112  RH  064%=      5-min Rain = 0
KWA1 100535Z 11006KT 18/11 A3017 RMK A01 T01810111  RH  063%=      5-min Rain = 0
KWA1 100536Z 10006KT 18/11 A3017 RMK A01 T01820111  RH  063%=      5-min Rain = 0
KWA1 100537Z 10006KT 18/11 A3017 RMK A01 T01820111  RH  063%=      5-min Rain = 0
KWA1 100538Z 10006KT 18/11 A3017 RMK A01 T01820111  RH  063%=      5-min Rain = 0
KWA1 100539Z 10006KT 18/11 A3017 RMK A01 T01810112  RH  064%=      5-min Rain = 0
KWA1 100540Z 11007KT 18/11 A3017 RMK A01 T01800111  RH  064%=      5-min Rain = 0
KWA1 100541Z 11006KT 18/11 A3017 RMK A01 T01800111  RH  064%=      5-min Rain = 0
KWA1 100542Z 11005KT 18/11 A3017 RMK A01 T01810111  RH  064%=      5-min Rain = 0
KWA1 100543Z 11005KT 18/11 A3017 RMK A01 T01820111  RH  063%=      5-min Rain = 0
KWA1 100544Z 11006KT 18/11 A3017 RMK A01 T01820111  RH  063%=      5-min Rain = 0
KWA1 100545Z 11005KT 18/11 A3017 RMK A01 T01820111  RH  063%=      5-min Rain = 0
KWA1 100546Z 10006KT 18/11 A3017 RMK A01 T01830111  RH  063%=      5-min Rain = 0
KWA1 100547Z 11005KT 18/11 A3017 RMK A01 T01820111  RH  063%=      5-min Rain = 0
KWA1 100548Z 10005KT 18/11 A3017 RMK A01 T01820111  RH  063%=      5-min Rain = 0
KWA1 100549Z 11005KT 18/11 A3017 RMK A01 T01820111  RH  063%=      5-min Rain = 0
KWA1 100550Z 11005KT 18/11 A3017 RMK A01 T01810111  RH  063%=      5-min Rain = 0
KWA1 100551Z 11005KT 18/11 A3018 RMK A01 T01810111  RH  064%=      5-min Rain = 0
KWA1 100552Z 11004KT 18/11 A3018 RMK A01 T01810111  RH  064%=      5-min Rain = 0
KWA1 100553Z 11005KT 18/11 A3018 RMK A01 T01800111  RH  064%=      5-min Rain = 0
KWA1 100554Z 11005KT 18/11 A3018 RMK A01 T01790111  RH  064%=      5-min Rain = 0
KWA1 100555Z 12005KT 18/11 A3018 RMK A01 T01790111  RH  064%=      5-min Rain = 0
KWA1 100556Z 12004KT 18/11 A3018 RMK A01 T01790111  RH  064%=      5-min Rain = 0
KWA1 100557Z 12004KT 18/11 A3018 RMK A01 T01790111  RH  064%=      5-min Rain = 0
KWA1 100558Z 12005KT 18/11 A3018 RMK A01 T01780111  RH  065%=      5-min Rain = 0
KWA1 100559Z 12005KT 18/11 A3018 RMK A01 T01760111  RH  066%=      5-min Rain = 0
KWA1 100600Z 12005KT 17/11 A3018 RMK A01 T01740111  RH  066%=      5-min Rain = 0
KWA1 100601Z 12005KT 17/11 A3018 RMK A01 T01730111  RH  067%=      5-min Rain = 0
KWA1 100602Z 12005KT 17/11 A3018 RMK A01 T01710111  RH  067%=      5-min Rain = 0
KWA1 100603Z 12005KT 17/11 A3018 RMK A01 T01700111  RH  068%=      5-min Rain = 0
KWA1 100604Z 12005KT 17/11 A3018 RMK A01 T01690111  RH  068%=      5-min Rain = 0
KWA1 100605Z 12005KT 17/11 A3018 RMK A01 T01690111  RH  069%=      5-min Rain = 0
KWA1 100606Z 11005KT 17/11 A3018 RMK A01 T01680111  RH  069%=      5-min Rain = 0
KWA1 100607Z 12005KT 17/11 A3018 RMK A01 T01670112  RH  070%=      5-min Rain = 0
KWA1 100608Z 11005KT 17/11 A3018 RMK A01 T01660112  RH  070%=      5-min Rain = 0
KWA1 100609Z 11005KT 17/11 A3018 RMK A01 T01660112  RH  070%=      5-min Rain = 0
KWA1 100610Z 12006KT 17/11 A3018 RMK A01 T01650112  RH  071%=      5-min Rain = 0
KWA1 100611Z 12006KT 17/11 A3018 RMK A01 T01650112  RH  071%=      5-min Rain = 0
KWA1 100612Z 12005KT 16/11 A3018 RMK A01 T01640112  RH  071%=      5-min Rain = 0
KWA1 100613Z 12006KT 16/11 A3018 RMK A01 T01640112  RH  071%=      5-min Rain = 0
KWA1 100614Z 12005KT 16/11 A3018 RMK A01 T01630112  RH  072%=      5-min Rain = 0
KWA1 100615Z 12006KT 16/11 A3018 RMK A01 T01630112  RH  072%=      5-min Rain = 0
KWA1 100616Z 12006KT 16/11 A3018 RMK A01 T01620112  RH  072%=      5-min Rain = 0
KWA1 100617Z 12005KT 16/11 A3018 RMK A01 T01610112  RH  072%=      5-min Rain = 0
KWA1 100618Z 13005KT 16/11 A3018 RMK A01 T01610112  RH  072%=      5-min Rain = 0
KWA1 100619Z 13005KT 16/11 A3018 RMK A01 T01610112  RH  073%=      5-min Rain = 0
KWA1 100620Z 13005KT 16/11 A3018 RMK A01 T01600111  RH  073%=      5-min Rain = 0
KWA1 100621Z 14005KT 16/11 A3018 RMK A01 T01600111  RH  073%=      5-min Rain = 0
KWA1 100622Z 14005KT 16/11 A3018 RMK A01 T01600112  RH  073%=      5-min Rain = 0
KWA1 100623Z 13005KT 16/11 A3018 RMK A01 T01590112  RH  073%=      5-min Rain = 0
KWA1 100624Z 13005KT 16/11 A3018 RMK A01 T01590112  RH  074%=      5-min Rain = 0
KWA1 100625Z 13005KT 16/11 A3017 RMK A01 T01590112  RH  074%=      5-min Rain = 0
KWA1 100626Z 13005KT 16/11 A3017 RMK A01 T01580112  RH  074%=      5-min Rain = 0
KWA1 100627Z 13005KT 16/11 A3017 RMK A01 T01570112  RH  074%=      5-min Rain = 0
KWA1 100628Z 13005KT 16/11 A3017 RMK A01 T01570112  RH  074%=      5-min Rain = 0
KWA1 100629Z 13005KT 16/11 A3017 RMK A01 T01560111  RH  075%=      5-min Rain = 0
KWA1 100630Z 13005KT 16/11 A3017 RMK A01 T01560111  RH  075%=      5-min Rain = 0
KWA1 100631Z 13005KT 16/11 A3017 RMK A01 T01560111  RH  075%=      5-min Rain = 0
KWA1 100632Z 13005KT 16/11 A3017 RMK A01 T01560112  RH  075%=      5-min Rain = 0
KWA1 100633Z 13006KT 16/11 A3017 RMK A01 T01560112  RH  075%=      5-min Rain = 0
KWA1 100634Z 12005KT 16/11 A3017 RMK A01 T01560112  RH  075%=      5-min Rain = 0
KWA1 100635Z 12005KT 16/11 A3017 RMK A01 T01560112  RH  075%=      5-min Rain = 0
KWA1 100636Z 12005KT 16/11 A3017 RMK A01 T01560112  RH  075%=      5-min Rain = 0
KWA1 100637Z 12005KT 16/11 A3017 RMK A01 T01560112  RH  075%=      5-min Rain = 0
KWA1 100638Z 12005KT 16/11 A3017 RMK A01 T01570112  RH  075%=      5-min Rain = 0
KWA1 100639Z 12005KT 16/11 A3017 RMK A01 T01570112  RH  074%=      5-min Rain = 0
KWA1 100640Z 12005KT 16/11 A3017 RMK A01 T01580112  RH  074%=      5-min Rain = 0
KWA1 100641Z 12005KT 16/11 A3017 RMK A01 T01580111  RH  074%=      5-min Rain = 0
KWA1 100642Z 12005KT 16/11 A3017 RMK A01 T01580111  RH  074%=      5-min Rain = 0
KWA1 100643Z 12005KT 16/11 A3017 RMK A01 T01580111  RH  073%=      5-min Rain = 0
KWA1 100644Z 12005KT 16/11 A3017 RMK A01 T01580111  RH  074%=      5-min Rain = 0
KWA1 100645Z 12005KT 16/11 A3017 RMK A01 T01580111  RH  074%=      5-min Rain = 0
KWA1 100646Z 13005KT 16/11 A3017 RMK A01 T01570112  RH  074%=      5-min Rain = 0
KWA1 100647Z 13004KT 16/11 A3017 RMK A01 T01560111  RH  074%=      5-min Rain = 0
KWA1 100648Z 13004KT 16/11 A3017 RMK A01 T01560112  RH  075%=      5-min Rain = 0
KWA1 100649Z 13004KT 16/11 A3017 RMK A01 T01550111  RH  075%=      5-min Rain = 0
KWA1 100650Z 14004KT 16/11 A3017 RMK A01 T01550111  RH  075%=      5-min Rain = 0
KWA1 100651Z 14004KT 16/11 A3017 RMK A01 T01550112  RH  075%=      5-min Rain = 0
KWA1 100652Z 14004KT 16/11 A3017 RMK A01 T01550112  RH  075%=      5-min Rain = 0
KWA1 100653Z 14004KT 16/11 A3017 RMK A01 T01550112  RH  075%=      5-min Rain = 0
KWA1 100654Z 14004KT 16/11 A3017 RMK A01 T01550112  RH  075%=      5-min Rain = 0
KWA1 100655Z 14004KT 16/11 A3017 RMK A01 T01550112  RH  075%=      5-min Rain = 0
KWA1 100656Z 14003KT 16/11 A3017 RMK A01 T01550112  RH  075%=      5-min Rain = 0
KWA1 100657Z 14004KT 16/11 A3017 RMK A01 T01550112  RH  076%=      5-min Rain = 0
KWA1 100658Z 14004KT 15/11 A3017 RMK A01 T01540112  RH  076%=      5-min Rain = 0
KWA1 100659Z 14003KT 15/11 A3017 RMK A01 T01540111  RH  076%=      5-min Rain = 0
KWA1 100700Z 14003KT 15/11 A3017 RMK A01 T01530111  RH  076%=      5-min Rain = 0
KWA1 100701Z 13004KT 15/11 A3017 RMK A01 T01530111  RH  076%=      5-min Rain = 0
KWA1 100702Z 13004KT 15/11 A3017 RMK A01 T01530111  RH  076%=      5-min Rain = 0
KWA1 100703Z 13004KT 15/11 A3017 RMK A01 T01530112  RH  076%=      5-min Rain = 0
KWA1 100704Z 13004KT 15/11 A3017 RMK A01 T01520112  RH  077%=      5-min Rain = 0
KWA1 100705Z 13003KT 15/11 A3017 RMK A01 T01530113  RH  077%=      5-min Rain = 0
KWA1 100706Z 13003KT 15/11 A3017 RMK A01 T01520113  RH  077%=      5-min Rain = 0
KWA1 100707Z 13003KT 15/11 A3017 RMK A01 T01520113  RH  078%=      5-min Rain = 0
KWA1 100708Z 13003KT 15/11 A3017 RMK A01 T01520113  RH  078%=      5-min Rain = 0
KWA1 100709Z 13003KT 15/11 A3017 RMK A01 T01520113  RH  078%=      5-min Rain = 0
KWA1 100710Z 14003KT 15/11 A3017 RMK A01 T01520113  RH  078%=      5-min Rain = 0
KWA1 100711Z 14002KT 15/11 A3017 RMK A01 T01520113  RH  078%=      5-min Rain = 0
KWA1 100712Z 14002KT 15/11 A3017 RMK A01 T01520113  RH  078%=      5-min Rain = 0
KWA1 100713Z 14002KT 15/11 A3017 RMK A01 T01510113  RH  078%=      5-min Rain = 0
KWA1 100714Z 14002KT 15/11 A3017 RMK A01 T01510112  RH  077%=      5-min Rain = 0
KWA1 100715Z 13002KT 15/11 A3017 RMK A01 T01510112  RH  078%=      5-min Rain = 0
KWA1 100716Z 13002KT 15/11 A3017 RMK A01 T01500112  RH  078%=      5-min Rain = 0
KWA1 100717Z 13002KT 15/11 A3017 RMK A01 T01500112  RH  078%=      5-min Rain = 0
KWA1 100718Z 12002KT 15/11 A3017 RMK A01 T01500111  RH  077%=      5-min Rain = 0
KWA1 100719Z 12002KT 15/11 A3017 RMK A01 T01500111  RH  078%=      5-min Rain = 0
KWA1 100720Z 13002KT 15/11 A3017 RMK A01 T01500111  RH  078%=      5-min Rain = 0
KWA1 100721Z 12002KT 15/11 A3017 RMK A01 T01500111  RH  078%=      5-min Rain = 0
KWA1 100722Z 13002KT 15/11 A3017 RMK A01 T01500112  RH  078%=      5-min Rain = 0
KWA1 100723Z 13002KT 15/11 A3017 RMK A01 T01500112  RH  078%=      5-min Rain = 0
KWA1 100724Z 13002KT 15/11 A3017 RMK A01 T01490112  RH  078%=      5-min Rain = 0
KWA1 100725Z 14002KT 15/11 A3017 RMK A01 T01490110  RH  078%=      5-min Rain = 0
KWA1 100726Z 13001KT 15/11 A3017 RMK A01 T01480111  RH  078%=      5-min Rain = 0
KWA1 100727Z 14002KT 15/11 A3017 RMK A01 T01480112  RH  079%=      5-min Rain = 0
KWA1 100728Z 14001KT 15/11 A3017 RMK A01 T01470113  RH  080%=      5-min Rain = 0
KWA1 100729Z 13001KT 15/11 A3017 RMK A01 T01470113  RH  080%=      5-min Rain = 0
KWA1 100730Z 11001KT 15/11 A3017 RMK A01 T01470113  RH  080%=      5-min Rain = 0
KWA1 100731Z 08001KT 15/11 A3017 RMK A01 T01470112  RH  079%=      5-min Rain = 0
KWA1 100732Z 05002KT 15/11 A3017 RMK A01 T01470110  RH  078%=      5-min Rain = 0
KWA1 100733Z 03005KT 15/11 A3018 RMK A01 T01450110  RH  079%=      5-min Rain = 0
KWA1 100734Z 02007KT 14/11 A3017 RMK A01 T01420110  RH  081%=      5-min Rain = 0
KWA1 100735Z 02007KT 14/11 A3017 RMK A01 T01400110  RH  082%=      5-min Rain = 0
KWA1 100736Z 02005KT 14/11 A3017 RMK A01 T01400110  RH  082%=      5-min Rain = 0
KWA1 100737Z 03004KT 14/11 A3017 RMK A01 T01400111  RH  082%=      5-min Rain = 0
KWA1 100738Z 04003KT 14/11 A3017 RMK A01 T01400110  RH  082%=      5-min Rain = 0
KWA1 100739Z 05002KT 14/11 A3017 RMK A01 T01410110  RH  082%=      5-min Rain = 0
KWA1 100740Z 07002KT 14/11 A3017 RMK A01 T01410110  RH  081%=      5-min Rain = 0
KWA1 100741Z 07001KT 14/11 A3017 RMK A01 T01420110  RH  081%=      5-min Rain = 0
KWA1 100742Z 06001KT 14/11 A3017 RMK A01 T01420110  RH  081%=      5-min Rain = 0
KWA1 100743Z 04003KT 14/11 A3017 RMK A01 T01430111  RH  081%=      5-min Rain = 0
KWA1 100744Z 03003KT 14/11 A3018 RMK A01 T01430110  RH  081%=      5-min Rain = 0
KWA1 100745Z 03003KT 14/11 A3017 RMK A01 T01430110  RH  081%=      5-min Rain = 0
KWA1 100746Z 04003KT 14/11 A3017 RMK A01 T01420110  RH  081%=      5-min Rain = 0
KWA1 100747Z 04003KT 14/11 A3017 RMK A01 T01400109  RH  082%=      5-min Rain = 0
KWA1 100748Z 04003KT 14/11 A3017 RMK A01 T01400109  RH  082%=      5-min Rain = 0
KWA1 100749Z 04003KT 14/11 A3017 RMK A01 T01390109  RH  082%=      5-min Rain = 0
KWA1 100750Z 04003KT 14/11 A3017 RMK A01 T01390109  RH  082%=      5-min Rain = 0
KWA1 100751Z 05003KT 14/11 A3017 RMK A01 T01400109  RH  081%=      5-min Rain = 0
KWA1 100752Z 05003KT 14/11 A3017 RMK A01 T01410109  RH  081%=      5-min Rain = 0
KWA1 100753Z 05003KT 14/11 A3017 RMK A01 T01410109  RH  081%=      5-min Rain = 0
KWA1 100754Z 05003KT 14/11 A3017 RMK A01 T01410110  RH  082%=      5-min Rain = 0
KWA1 100755Z 05003KT 14/11 A3017 RMK A01 T01410111  RH  082%=      5-min Rain = 0
KWA1 100756Z 05003KT 14/11 A3017 RMK A01 T01400110  RH  082%=      5-min Rain = 0
KWA1 100757Z 05003KT 14/11 A3017 RMK A01 T01400110  RH  082%=      5-min Rain = 0
KWA1 100758Z 05003KT 14/11 A3018 RMK A01 T01390110  RH  082%=      5-min Rain = 0
KWA1 100759Z 05003KT 14/11 A3018 RMK A01 T01390110  RH  082%=      5-min Rain = 0
KWA1 100800Z 04004KT 14/11 A3018 RMK A01 T01390109  RH  082%=      5-min Rain = 0
KWA1 100801Z 04003KT 14/11 A3018 RMK A01 T01380108  RH  082%=      5-min Rain = 0
KWA1 100802Z 06003KT 14/11 A3018 RMK A01 T01370107  RH  082%=      5-min Rain = 0
KWA1 100803Z 07003KT 14/11 A3018 RMK A01 T01380108  RH  082%=      5-min Rain = 0
KWA1 100804Z 07002KT 14/11 A3018 RMK A01 T01370108  RH  082%=      5-min Rain = 0
KWA1 100805Z 07002KT 14/11 A3018 RMK A01 T01380108  RH  082%=      5-min Rain = 0
KWA1 100806Z 07002KT 14/11 A3018 RMK A01 T01370108  RH  082%=      5-min Rain = 0
KWA1 100807Z 06002KT 14/11 A3018 RMK A01 T01380108  RH  082%=      5-min Rain = 0
KWA1 100808Z 05002KT 14/11 A3018 RMK A01 T01380109  RH  083%=      5-min Rain = 0
KWA1 100809Z 05002KT 14/11 A3018 RMK A01 T01380109  RH  083%=      5-min Rain = 0
KWA1 100810Z 05002KT 14/11 A3018 RMK A01 T01380109  RH  083%=      5-min Rain = 0
KWA1 100811Z 05001KT 14/11 A3018 RMK A01 T01370110  RH  083%=      5-min Rain = 0
KWA1 100812Z 05001KT 14/11 A3018 RMK A01 T01380109  RH  083%=      5-min Rain = 0
KWA1 100813Z 05000KT 14/11 A3018 RMK A01 T01380109  RH  082%=      5-min Rain = 0
KWA1 100814Z 00000KT 14/11 A3018 RMK A01 T01390109  RH  082%=      5-min Rain = 0
KWA1 100815Z 00000KT 14/11 A3018 RMK A01 T01400111  RH  083%=      5-min Rain = 0
KWA1 100816Z 05000KT 14/11 A3018 RMK A01 T01390112  RH  083%=      5-min Rain = 0
KWA1 100817Z 05001KT 14/11 A3018 RMK A01 T01380111  RH  084%=      5-min Rain = 0
KWA1 100818Z 05001KT 14/11 A3018 RMK A01 T01370111  RH  084%=      5-min Rain = 0
KWA1 100819Z 05001KT 14/11 A3018 RMK A01 T01370111  RH  084%=      5-min Rain = 0
KWA1 100820Z 05002KT 14/11 A3018 RMK A01 T01360109  RH  084%=      5-min Rain = 0
KWA1 100821Z 05001KT 14/11 A3018 RMK A01 T01360107  RH  083%=      5-min Rain = 0
KWA1 100822Z 05001KT 14/11 A3018 RMK A01 T01360107  RH  083%=      5-min Rain = 0
KWA1 100823Z 05001KT 14/11 A3018 RMK A01 T01350106  RH  083%=      5-min Rain = 0
KWA1 100824Z 06002KT 14/11 A3018 RMK A01 T01350105  RH  082%=      5-min Rain = 0
KWA1 100825Z 06002KT 14/11 A3018 RMK A01 T01350105  RH  082%=      5-min Rain = 0
KWA1 100826Z 06002KT 14/11 A3018 RMK A01 T01350105  RH  082%=      5-min Rain = 0
KWA1 100827Z 06002KT 14/11 A3018 RMK A01 T01350105  RH  082%=      5-min Rain = 0
KWA1 100828Z 06002KT 14/11 A3018 RMK A01 T01350105  RH  082%=      5-min Rain = 0
KWA1 100829Z 06002KT 14/11 A3018 RMK A01 T01360106  RH  082%=      5-min Rain = 0
KWA1 100830Z 06002KT 14/11 A3018 RMK A01 T01350106  RH  083%=      5-min Rain = 0
KWA1 100831Z 06002KT 14/11 A3018 RMK A01 T01360107  RH  083%=      5-min Rain = 0
KWA1 100832Z 06002KT 14/11 A3018 RMK A01 T01350106  RH  082%=      5-min Rain = 0
KWA1 100833Z 04001KT 14/11 A3018 RMK A01 T01350105  RH  082%=      5-min Rain = 0
KWA1 100834Z 03001KT 14/11 A3018 RMK A01 T01350105  RH  082%=      5-min Rain = 0
KWA1 100835Z 03001KT 14/11 A3018 RMK A01 T01350105  RH  082%=      5-min Rain = 0
KWA1 100836Z 03001KT 14/11 A3018 RMK A01 T01350105  RH  082%=      5-min Rain = 0
KWA1 100837Z 03000KT 13/11 A3018 RMK A01 T01340105  RH  082%=      5-min Rain = 0
KWA1 100838Z 33002KT 13/10 A3018 RMK A01 T01340104  RH  082%=      5-min Rain = 0
KWA1 100839Z 33001KT 13/10 A3018 RMK A01 T01330103  RH  082%=      5-min Rain = 0
KWA1 100840Z 33001KT 13/10 A3018 RMK A01 T01330104  RH  082%=      5-min Rain = 0
KWA1 100841Z 33001KT 13/11 A3018 RMK A01 T01330106  RH  084%=      5-min Rain = 0
KWA1 100842Z 00000KT 13/11 A3018 RMK A01 T01320107  RH  085%=      5-min Rain = 0
KWA1 100843Z 00000KT 13/11 A3018 RMK A01 T01320107  RH  085%=      5-min Rain = 0
KWA1 100844Z 00000KT 13/11 A3018 RMK A01 T01320108  RH  085%=      5-min Rain = 0
KWA1 100845Z 00000KT 13/11 A3018 RMK A01 T01320108  RH  086%=      5-min Rain = 0
KWA1 100846Z 00000KT 13/11 A3018 RMK A01 T01320108  RH  085%=      5-min Rain = 0
KWA1 100847Z 00000KT 13/11 A3018 RMK A01 T01320107  RH  085%=      5-min Rain = 0
KWA1 100848Z 00000KT 13/11 A3018 RMK A01 T01330109  RH  085%=      5-min Rain = 0
KWA1 100849Z 00000KT 13/11 A3018 RMK A01 T01330110  RH  086%=      5-min Rain = 0
KWA1 100850Z 00000KT 13/11 A3018 RMK A01 T01330110  RH  086%=      5-min Rain = 0
KWA1 100851Z 00000KT 13/11 A3018 RMK A01 T01320110  RH  087%=      5-min Rain = 0
KWA1 100852Z 00000KT 13/11 A3018 RMK A01 T01320110  RH  087%=      5-min Rain = 0
KWA1 100853Z 00000KT 13/11 A3018 RMK A01 T01310110  RH  087%=      5-min Rain = 0
KWA1 100854Z 00000KT 13/11 A3018 RMK A01 T01300109  RH  087%=      5-min Rain = 0
KWA1 100855Z 00000KT 13/11 A3018 RMK A01 T01300110  RH  087%=      5-min Rain = 0
KWA1 100856Z 00000KT 13/11 A3018 RMK A01 T01300110  RH  088%=      5-min Rain = 0
KWA1 100857Z 00000KT 13/11 A3018 RMK A01 T01300110  RH  088%=      5-min Rain = 0
KWA1 100858Z 00000KT 13/11 A3018 RMK A01 T01300110  RH  088%=      5-min Rain = 0
KWA1 100859Z 00000KT 13/11 A3018 RMK A01 T01300110  RH  088%=      5-min Rain = 0
KWA1 100900Z 00000KT 13/11 A3018 RMK A01 T01300110  RH  087%=      5-min Rain = 0
KWA1 100901Z 00000KT 13/11 A3018 RMK A01 T01300110  RH  088%=      5-min Rain = 0
KWA1 100902Z 00000KT 13/11 A3018 RMK A01 T01300110  RH  088%=      5-min Rain = 0
KWA1 100903Z 00000KT 13/11 A3018 RMK A01 T01300110  RH  088%=      5-min Rain = 0
KWA1 100904Z 00000KT 13/11 A3018 RMK A01 T01290110  RH  088%=      5-min Rain = 0
KWA1 100905Z 00000KT 13/11 A3018 RMK A01 T01290109  RH  088%=      5-min Rain = 0
KWA1 100906Z 00000KT 13/11 A3018 RMK A01 T01290110  RH  088%=      5-min Rain = 0
KWA1 100907Z 00000KT 13/11 A3018 RMK A01 T01290110  RH  088%=      5-min Rain = 0
KWA1 100908Z 23001KT 13/11 A3018 RMK A01 T01290110  RH  088%=      5-min Rain = 0
KWA1 100909Z 23001KT 13/11 A3018 RMK A01 T01290110  RH  088%=      5-min Rain = 0
KWA1 100910Z 23002KT 13/11 A3018 RMK A01 T01300110  RH  088%=      5-min Rain = 0
KWA1 100911Z 23001KT 13/11 A3018 RMK A01 T01290110  RH  088%=      5-min Rain = 0
KWA1 100912Z 23002KT 13/11 A3018 RMK A01 T01290110  RH  088%=      5-min Rain = 0
KWA1 100913Z 24001KT 13/11 A3018 RMK A01 T01290110  RH  088%=      5-min Rain = 0
KWA1 100914Z 24001KT 13/11 A3018 RMK A01 T01290110  RH  088%=      5-min Rain = 0
KWA1 100915Z 25002KT 13/11 A3018 RMK A01 T01290110  RH  088%=      5-min Rain = 0
KWA1 100916Z 25002KT 13/11 A3018 RMK A01 T01290109  RH  088%=      5-min Rain = 0
KWA1 100917Z 26001KT 13/11 A3018 RMK A01 T01290108  RH  087%=      5-min Rain = 0
KWA1 100918Z 27002KT 13/11 A3018 RMK A01 T01290107  RH  086%=      5-min Rain = 0
KWA1 100919Z 28002KT 13/11 A3018 RMK A01 T01290106  RH  086%=      5-min Rain = 0
KWA1 100920Z 28002KT 13/11 A3018 RMK A01 T01290106  RH  086%=      5-min Rain = 0
KWA1 100921Z 28002KT 13/11 A3019 RMK A01 T01290105  RH  086%=      5-min Rain = 0
KWA1 100922Z 28001KT 13/11 A3019 RMK A01 T01290105  RH  085%=      5-min Rain = 0
KWA1 100923Z 28001KT 13/10 A3019 RMK A01 T01300104  RH  084%=      5-min Rain = 0
KWA1 100924Z 27001KT 13/10 A3018 RMK A01 T01310104  RH  084%=      5-min Rain = 0
KWA1 100925Z 26001KT 13/11 A3018 RMK A01 T01320105  RH  084%=      5-min Rain = 0
KWA1 100926Z 24001KT 13/11 A3018 RMK A01 T01330106  RH  084%=      5-min Rain = 0
KWA1 100927Z 24002KT 13/11 A3018 RMK A01 T01340107  RH  084%=      5-min Rain = 0
KWA1 100928Z 24001KT 13/11 A3018 RMK A01 T01340107  RH  084%=      5-min Rain = 0
KWA1 100929Z 24001KT 13/11 A3018 RMK A01 T01340108  RH  084%=      5-min Rain = 0
KWA1 100930Z 24001KT 13/11 A3018 RMK A01 T01340108  RH  085%=      5-min Rain = 0
KWA1 100931Z 24001KT 13/11 A3018 RMK A01 T01330109  RH  085%=      5-min Rain = 0
KWA1 100932Z 24001KT 13/11 A3018 RMK A01 T01330108  RH  085%=      5-min Rain = 0
KWA1 100933Z 24001KT 13/11 A3018 RMK A01 T01330108  RH  085%=      5-min Rain = 0
KWA1 100934Z 24000KT 13/11 A3018 RMK A01 T01320108  RH  085%=      5-min Rain = 0
KWA1 100935Z 24000KT 13/11 A3019 RMK A01 T01320107  RH  085%=      5-min Rain = 0
KWA1 100936Z 00000KT 13/11 A3019 RMK A01 T01320106  RH  084%=      5-min Rain = 0
KWA1 100937Z 27000KT 13/11 A3019 RMK A01 T01320105  RH  084%=      5-min Rain = 0
KWA1 100938Z 30001KT 13/11 A3019 RMK A01 T01310105  RH  084%=      5-min Rain = 0
KWA1 100939Z 31001KT 13/11 A3019 RMK A01 T01310105  RH  084%=      5-min Rain = 0
KWA1 100940Z 32001KT 13/10 A3019 RMK A01 T01310104  RH  084%=      5-min Rain = 0
KWA1 100941Z 32001KT 13/10 A3019 RMK A01 T01310104  RH  084%=      5-min Rain = 0
KWA1 100942Z 32001KT 13/10 A3019 RMK A01 T01310104  RH  084%=      5-min Rain = 0
KWA1 100943Z 32001KT 13/10 A3019 RMK A01 T01300104  RH  084%=      5-min Rain = 0
KWA1 100944Z 33001KT 13/11 A3019 RMK A01 T01300105  RH  084%=      5-min Rain = 0
KWA1 100945Z 33001KT 13/11 A3019 RMK A01 T01300105  RH  085%=      5-min Rain = 0
KWA1 100946Z 34001KT 13/11 A3019 RMK A01 T01300105  RH  085%=      5-min Rain = 0
KWA1 100947Z 35001KT 13/11 A3019 RMK A01 T01290105  RH  085%=      5-min Rain = 0
KWA1 100948Z 35001KT 13/11 A3019 RMK A01 T01290105  RH  085%=      5-min Rain = 0
KWA1 100949Z 35001KT 13/10 A3019 RMK A01 T01280104  RH  086%=      5-min Rain = 0
KWA1 100950Z 35001KT 13/11 A3019 RMK A01 T01280105  RH  086%=      5-min Rain = 0
KWA1 100951Z 35001KT 13/11 A3019 RMK A01 T01280105  RH  086%=      5-min Rain = 0
KWA1 100952Z 35001KT 13/11 A3019 RMK A01 T01270105  RH  086%=      5-min Rain = 0
KWA1 100953Z 35000KT 13/11 A3019 RMK A01 T01270105  RH  086%=      5-min Rain = 0
KWA1 100954Z 35000KT 13/10 A3019 RMK A01 T01270104  RH  086%=      5-min Rain = 0
KWA1 100955Z 35000KT 13/10 A3019 RMK A01 T01270104  RH  086%=      5-min Rain = 0
KWA1 100956Z 35000KT 13/10 A3019 RMK A01 T01270104  RH  086%=      5-min Rain = 0
KWA1 100957Z 35001KT 13/11 A3019 RMK A01 T01270105  RH  086%=      5-min Rain = 0
KWA1 100958Z 35001KT 13/11 A3019 RMK A01 T01270105  RH  086%=      5-min Rain = 0
KWA1 100959Z 35001KT 13/11 A3019 RMK A01 T01280105  RH  086%=      5-min Rain = 0
KWA1 101000Z 35002KT 13/11 A3019 RMK A01 T01290105  RH  086%=      5-min Rain = 0
KWA1 101001Z 35002KT 13/11 A3019 RMK A01 T01290105  RH  085%=      5-min Rain = 0
KWA1 101002Z 35002KT 13/11 A3019 RMK A01 T01290105  RH  086%=      5-min Rain = 0
KWA1 101003Z 35002KT 13/11 A3019 RMK A01 T01290106  RH  086%=      5-min Rain = 0
KWA1 101004Z 35002KT 13/11 A3019 RMK A01 T01290105  RH  086%=      5-min Rain = 0
KWA1 101005Z 00003KT 13/11 A3019 RMK A01 T01290105  RH  085%=      5-min Rain = 0
KWA1 101006Z 00003KT 13/10 A3019 RMK A01 T01280104  RH  085%=      5-min Rain = 0
KWA1 101007Z 00002KT 13/10 A3019 RMK A01 T01280104  RH  085%=      5-min Rain = 0
KWA1 101008Z 01003KT 13/10 A3019 RMK A01 T01270103  RH  085%=      5-min Rain = 0
KWA1 101009Z 01003KT 13/10 A3019 RMK A01 T01260103  RH  085%=      5-min Rain = 0
KWA1 101010Z 01003KT 13/10 A3019 RMK A01 T01260102  RH  086%=      5-min Rain = 0
KWA1 101011Z 01003KT 13/10 A3019 RMK A01 T01250102  RH  086%=      5-min Rain = 0
KWA1 101012Z 01003KT 12/10 A3019 RMK A01 T01240102  RH  086%=      5-min Rain = 0
KWA1 101013Z 01003KT 12/10 A3019 RMK A01 T01230102  RH  087%=      5-min Rain = 0
KWA1 101014Z 01003KT 12/10 A3019 RMK A01 T01230102  RH  087%=      5-min Rain = 0
KWA1 101015Z 01003KT 12/10 A3019 RMK A01 T01230103  RH  088%=      5-min Rain = 0
KWA1 101016Z 01003KT 12/10 A3019 RMK A01 T01220103  RH  088%=      5-min Rain = 0
KWA1 101017Z 01003KT 12/10 A3019 RMK A01 T01220103  RH  088%=      5-min Rain = 0
KWA1 101018Z 01003KT 12/10 A3019 RMK A01 T01220102  RH  088%=      5-min Rain = 0
KWA1 101019Z 01004KT 12/10 A3019 RMK A01 T01220102  RH  088%=      5-min Rain = 0
KWA1 101020Z 01004KT 12/10 A3019 RMK A01 T01220102  RH  088%=      5-min Rain = 0
KWA1 101021Z 01004KT 12/10 A3019 RMK A01 T01220102  RH  088%=      5-min Rain = 0
KWA1 101022Z 01005KT 12/10 A3019 RMK A01 T01220103  RH  088%=      5-min Rain = 0
KWA1 101023Z 01005KT 12/10 A3019 RMK A01 T01210102  RH  088%=      5-min Rain = 0
KWA1 101024Z 01005KT 12/10 A3019 RMK A01 T01210102  RH  088%=      5-min Rain = 0
KWA1 101025Z 01005KT 12/10 A3019 RMK A01 T01210102  RH  088%=      5-min Rain = 0
KWA1 101026Z 02005KT 12/10 A3019 RMK A01 T01210102  RH  088%=      5-min Rain = 0
KWA1 101027Z 02005KT 12/10 A3019 RMK A01 T01200102  RH  088%=      5-min Rain = 0
KWA1 101028Z 02006KT 12/10 A3019 RMK A01 T01200102  RH  089%=      5-min Rain = 0
KWA1 101029Z 02006KT 12/10 A3019 RMK A01 T01200102  RH  089%=      5-min Rain = 0
KWA1 101030Z 02006KT 12/10 A3019 RMK A01 T01200102  RH  089%=      5-min Rain = 0
KWA1 101031Z 02005KT 12/10 A3019 RMK A01 T01200102  RH  089%=      5-min Rain = 0
KWA1 101032Z 03005KT 12/10 A3019 RMK A01 T01200102  RH  089%=      5-min Rain = 0
KWA1 101033Z 03005KT 12/10 A3019 RMK A01 T01200103  RH  089%=      5-min Rain = 0
KWA1 101034Z 03005KT 12/10 A3019 RMK A01 T01200103  RH  089%=      5-min Rain = 0
KWA1 101035Z 03005KT 12/10 A3019 RMK A01 T01210104  RH  089%=      5-min Rain = 0
KWA1 101036Z 03005KT 12/10 A3019 RMK A01 T01220104  RH  089%=      5-min Rain = 0
KWA1 101037Z 03005KT 12/10 A3019 RMK A01 T01220104  RH  089%=      5-min Rain = 0
KWA1 101038Z 03005KT 12/10 A3019 RMK A01 T01230104  RH  088%=      5-min Rain = 0
KWA1 101039Z 03005KT 12/10 A3019 RMK A01 T01230104  RH  088%=      5-min Rain = 0
KWA1 101040Z 03005KT 12/10 A3019 RMK A01 T01240104  RH  088%=      5-min Rain = 0
KWA1 101041Z 03005KT 12/10 A3019 RMK A01 T01240104  RH  087%=      5-min Rain = 0
KWA1 101042Z 03005KT 13/10 A3019 RMK A01 T01250104  RH  087%=      5-min Rain = 0
KWA1 101043Z 03005KT 12/10 A3019 RMK A01 T01240104  RH  087%=      5-min Rain = 0
KWA1 101044Z 03005KT 12/10 A3019 RMK A01 T01240104  RH  087%=      5-min Rain = 0
KWA1 101045Z 03005KT 12/10 A3019 RMK A01 T01240104  RH  087%=      5-min Rain = 0
KWA1 101046Z 04004KT 12/10 A3019 RMK A01 T01230103  RH  088%=      5-min Rain = 0
KWA1 101047Z 04004KT 12/10 A3019 RMK A01 T01230103  RH  088%=      5-min Rain = 0
KWA1 101048Z 04004KT 12/10 A3019 RMK A01 T01230103  RH  088%=      5-min Rain = 0
KWA1 101049Z 04004KT 12/10 A3019 RMK A01 T01220103  RH  088%=      5-min Rain = 0
KWA1 101050Z 03004KT 12/10 A3019 RMK A01 T01220103  RH  088%=      5-min Rain = 0
KWA1 101051Z 03004KT 12/10 A3019 RMK A01 T01220103  RH  088%=      5-min Rain = 0
KWA1 101052Z 04004KT 12/10 A3019 RMK A01 T01220104  RH  089%=      5-min Rain = 0
KWA1 101053Z 04004KT 12/10 A3019 RMK A01 T01220103  RH  088%=      5-min Rain = 0
KWA1 101054Z 03004KT 12/10 A3019 RMK A01 T01220103  RH  088%=      5-min Rain = 0
KWA1 101055Z 03004KT 12/10 A3019 RMK A01 T01220102  RH  088%=      5-min Rain = 0
KWA1 101056Z 03005KT 12/10 A3019 RMK A01 T01210102  RH  088%=      5-min Rain = 0
KWA1 101057Z 03005KT 12/10 A3019 RMK A01 T01210102  RH  088%=      5-min Rain = 0
KWA1 101058Z 03004KT 12/10 A3019 RMK A01 T01210102  RH  088%=      5-min Rain = 0
KWA1 101059Z 02004KT 12/10 A302 RMK A01 T01210102  RH  088%=      5-min Rain = 0
KWA1 101100Z 02004KT 12/10 A302 RMK A01 T01210101  RH  088%=      5-min Rain = 0
KWA1 101101Z 02004KT 12/10 A302 RMK A01 T01210101  RH  088%=      5-min Rain = 0
KWA1 101102Z 02003KT 12/10 A302 RMK A01 T01200101  RH  088%=      5-min Rain = 0
KWA1 101103Z 02003KT 12/10 A302 RMK A01 T01200101  RH  088%=      5-min Rain = 0
KWA1 101104Z 03003KT 12/10 A302 RMK A01 T01200102  RH  088%=      5-min Rain = 0
KWA1 101105Z 03003KT 12/10 A302 RMK A01 T01200102  RH  088%=      5-min Rain = 0
KWA1 101106Z 03004KT 12/10 A302 RMK A01 T01200102  RH  089%=      5-min Rain = 0
KWA1 101107Z 03004KT 12/10 A302 RMK A01 T01210102  RH  088%=      5-min Rain = 0
KWA1 101108Z 03004KT 12/10 A302 RMK A01 T01210101  RH  088%=      5-min Rain = 0
KWA1 101109Z 03004KT 12/10 A302 RMK A01 T01210101  RH  088%=      5-min Rain = 0
KWA1 101110Z 03004KT 12/10 A302 RMK A01 T01210101  RH  088%=      5-min Rain = 0
KWA1 101111Z 04004KT 12/10 A302 RMK A01 T01200101  RH  088%=      5-min Rain = 0
KWA1 101112Z 04004KT 12/10 A302 RMK A01 T01200101  RH  088%=      5-min Rain = 0
KWA1 101113Z 03005KT 12/10 A302 RMK A01 T01200101  RH  088%=      5-min Rain = 0
KWA1 101114Z 03005KT 12/10 A302 RMK A01 T01190101  RH  088%=      5-min Rain = 0
KWA1 101115Z 03005KT 12/10 A302 RMK A01 T01190101  RH  088%=      5-min Rain = 0
KWA1 101116Z 03005KT 12/10 A302 RMK A01 T01190100  RH  088%=      5-min Rain = 0
KWA1 101117Z 03006KT 12/10 A302 RMK A01 T01180099  RH  088%=      5-min Rain = 0
KWA1 101118Z 03006KT 12/10 A302 RMK A01 T01180100  RH  088%=      5-min Rain = 0
KWA1 101119Z 03006KT 12/10 A302 RMK A01 T01180100  RH  089%=      5-min Rain = 0
KWA1 101120Z 03006KT 12/10 A302 RMK A01 T01180101  RH  089%=      5-min Rain = 0
KWA1 101121Z 03006KT 12/10 A302 RMK A01 T01180101  RH  089%=      5-min Rain = 0
KWA1 101122Z 03006KT 12/10 A302 RMK A01 T01180101  RH  089%=      5-min Rain = 0
KWA1 101123Z 03005KT 12/10 A302 RMK A01 T01180101  RH  089%=      5-min Rain = 0
KWA1 101124Z 03005KT 12/10 A302 RMK A01 T01190102  RH  089%=      5-min Rain = 0
KWA1 101125Z 03005KT 12/10 A302 RMK A01 T01190101  RH  089%=      5-min Rain = 0
KWA1 101126Z 03005KT 12/10 A302 RMK A01 T01200102  RH  089%=      5-min Rain = 0
KWA1 101127Z 03004KT 12/10 A302 RMK A01 T01190102  RH  089%=      5-min Rain = 0
KWA1 101128Z 04004KT 12/10 A302 RMK A01 T01200102  RH  089%=      5-min Rain = 0
KWA1 101129Z 03004KT 12/10 A302 RMK A01 T01210103  RH  089%=      5-min Rain = 0
KWA1 101130Z 04004KT 12/10 A3021 RMK A01 T01200102  RH  089%=      5-min Rain = 0
KWA1 101131Z 04004KT 12/10 A3021 RMK A01 T01210102  RH  088%=      5-min Rain = 0
KWA1 101132Z 04004KT 12/10 A3021 RMK A01 T01210102  RH  088%=      5-min Rain = 0
KWA1 101133Z 04004KT 12/10 A3021 RMK A01 T01210102  RH  088%=      5-min Rain = 0
KWA1 101134Z 04005KT 12/10 A3021 RMK A01 T01210102  RH  088%=      5-min Rain = 0
KWA1 101135Z 04005KT 12/10 A3021 RMK A01 T01210101  RH  088%=      5-min Rain = 0
KWA1 101136Z 04004KT 12/10 A3021 RMK A01 T01210101  RH  088%=      5-min Rain = 0
KWA1 101137Z 04004KT 12/10 A3021 RMK A01 T01200101  RH  088%=      5-min Rain = 0
KWA1 101138Z 04004KT 12/10 A3021 RMK A01 T01200100  RH  088%=      5-min Rain = 0
KWA1 101139Z 03004KT 12/10 A3021 RMK A01 T01190100  RH  088%=      5-min Rain = 0
KWA1 101140Z 04004KT 12/10 A3021 RMK A01 T01190100  RH  088%=      5-min Rain = 0
KWA1 101141Z 04004KT 12/10 A3021 RMK A01 T01190100  RH  088%=      5-min Rain = 0
KWA1 101142Z 04004KT 12/10 A3021 RMK A01 T01180099  RH  088%=      5-min Rain = 0
KWA1 101143Z 04004KT 12/10 A3021 RMK A01 T01180099  RH  088%=      5-min Rain = 0
KWA1 101144Z 04004KT 12/10 A3021 RMK A01 T01180100  RH  089%=      5-min Rain = 0
KWA1 101145Z 04004KT 12/10 A3021 RMK A01 T01170099  RH  089%=      5-min Rain = 0
KWA1 101146Z 04004KT 12/10 A3021 RMK A01 T01170099  RH  089%=      5-min Rain = 0
KWA1 101147Z 04004KT 12/10 A3021 RMK A01 T01170100  RH  089%=      5-min Rain = 0
KWA1 101148Z 04004KT 12/10 A3021 RMK A01 T01170099  RH  089%=      5-min Rain = 0
KWA1 101149Z 04004KT 12/10 A3021 RMK A01 T01160099  RH  089%=      5-min Rain = 0
KWA1 101150Z 04004KT 12/10 A3021 RMK A01 T01160099  RH  089%=      5-min Rain = 0
KWA1 101151Z 04003KT 12/10 A3021 RMK A01 T01160099  RH  089%=      5-min Rain = 0
KWA1 101152Z 04003KT 12/10 A3021 RMK A01 T01150099  RH  089%=      5-min Rain = 0
KWA1 101153Z 04004KT 12/10 A3021 RMK A01 T01150099  RH  090%=      5-min Rain = 0
KWA1 101154Z 04003KT 12/10 A3021 RMK A01 T01150099  RH  090%=      5-min Rain = 0
KWA1 101155Z 04003KT 12/10 A3021 RMK A01 T01150099  RH  090%=      5-min Rain = 0
KWA1 101156Z 04004KT 12/10 A3021 RMK A01 T01150100  RH  090%=      5-min Rain = 0
KWA1 101157Z 05004KT 12/10 A3021 RMK A01 T01160100  RH  090%=      5-min Rain = 0
KWA1 101158Z 05004KT 12/10 A3021 RMK A01 T01150099  RH  090%=      5-min Rain = 0
KWA1 101159Z 05004KT 12/10 A3021 RMK A01 T01160099  RH  090%=      5-min Rain = 0
KWA1 101200Z 06004KT 12/10 A3021 RMK A01 T01160099  RH  089%=      5-min Rain = 0
KWA1 101201Z 06004KT 12/10 A3021 RMK A01 T01160099  RH  089%=      5-min Rain = 0
KWA1 101202Z 06004KT 12/10 A3021 RMK A01 T01160098  RH  089%=      5-min Rain = 0
KWA1 101203Z 06004KT 12/10 A3021 RMK A01 T01170099  RH  089%=      5-min Rain = 0
KWA1 101204Z 06003KT 12/10 A3021 RMK A01 T01170098  RH  089%=      5-min Rain = 0
KWA1 101205Z 06003KT 12/10 A3021 RMK A01 T01170098  RH  088%=      5-min Rain = 0
KWA1 101206Z 06003KT 12/10 A3021 RMK A01 T01170098  RH  088%=      5-min Rain = 0
KWA1 101207Z 06003KT 12/10 A3021 RMK A01 T01170098  RH  088%=      5-min Rain = 0
KWA1 101208Z 06003KT 12/10 A3021 RMK A01 T01170098  RH  088%=      5-min Rain = 0
KWA1 101209Z 06003KT 12/10 A3021 RMK A01 T01160098  RH  088%=      5-min Rain = 0
KWA1 101210Z 06003KT 12/10 A3021 RMK A01 T01160098  RH  088%=      5-min Rain = 0
KWA1 101211Z 06003KT 12/10 A3021 RMK A01 T01160098  RH  089%=      5-min Rain = 0
KWA1 101212Z 06003KT 12/10 A3021 RMK A01 T01160098  RH  089%=      5-min Rain = 0
KWA1 101213Z 06003KT 12/10 A3021 RMK A01 T01160098  RH  089%=      5-min Rain = 0
KWA1 101214Z 06003KT 12/10 A3021 RMK A01 T01160097  RH  088%=      5-min Rain = 0
KWA1 101215Z 06003KT 12/10 A3021 RMK A01 T01160097  RH  088%=      5-min Rain = 0
KWA1 101216Z 06004KT 12/10 A3021 RMK A01 T01150097  RH  088%=      5-min Rain = 0
KWA1 101217Z 07004KT 12/10 A3021 RMK A01 T01150097  RH  089%=      5-min Rain = 0
KWA1 101218Z 07003KT 11/10 A3021 RMK A01 T01140097  RH  089%=      5-min Rain = 0
KWA1 101219Z 07003KT 11/10 A3021 RMK A01 T01140097  RH  089%=      5-min Rain = 0
KWA1 101220Z 07003KT 11/10 A3022 RMK A01 T01140097  RH  089%=      5-min Rain = 0
KWA1 101221Z 07003KT 11/10 A3022 RMK A01 T01130096  RH  089%=      5-min Rain = 0
KWA1 101222Z 07003KT 11/10 A3022 RMK A01 T01120096  RH  090%=      5-min Rain = 0
KWA1 101223Z 07003KT 11/10 A3022 RMK A01 T01120096  RH  090%=      5-min Rain = 0
KWA1 101224Z 07003KT 11/10 A3022 RMK A01 T01120097  RH  090%=      5-min Rain = 0
KWA1 101225Z 07003KT 11/10 A3022 RMK A01 T01120097  RH  090%=      5-min Rain = 0
KWA1 101226Z 07002KT 11/10 A3022 RMK A01 T01120098  RH  091%=      5-min Rain = 0
KWA1 101227Z 07002KT 11/10 A3022 RMK A01 T01130098  RH  091%=      5-min Rain = 0
KWA1 101228Z 08003KT 11/10 A3022 RMK A01 T01130099  RH  091%=      5-min Rain = 0
KWA1 101229Z 08003KT 11/10 A3022 RMK A01 T01140099  RH  090%=      5-min Rain = 0
KWA1 101230Z 08003KT 11/10 A3022 RMK A01 T01140099  RH  090%=      5-min Rain = 0
KWA1 101231Z 08003KT 11/10 A3022 RMK A01 T01140098  RH  090%=      5-min Rain = 0
KWA1 101232Z 08002KT 12/10 A3022 RMK A01 T01150099  RH  090%=      5-min Rain = 0
KWA1 101233Z 08003KT 12/10 A3022 RMK A01 T01160099  RH  089%=      5-min Rain = 0
KWA1 101234Z 09002KT 12/10 A3022 RMK A01 T01160099  RH  089%=      5-min Rain = 0
KWA1 101235Z 09003KT 12/10 A3022 RMK A01 T01160099  RH  089%=      5-min Rain = 0
KWA1 101236Z 09003KT 12/10 A3022 RMK A01 T01170099  RH  089%=      5-min Rain = 0
KWA1 101237Z 09003KT 12/10 A3022 RMK A01 T01170099  RH  089%=      5-min Rain = 0
KWA1 101238Z 09003KT 12/10 A3022 RMK A01 T01170099  RH  089%=      5-min Rain = 0
KWA1 101239Z 09003KT 12/10 A3022 RMK A01 T01160098  RH  089%=      5-min Rain = 0
KWA1 101240Z 09003KT 12/10 A3022 RMK A01 T01170099  RH  089%=      5-min Rain = 0
KWA1 101241Z 09003KT 12/10 A3022 RMK A01 T01160098  RH  089%=      5-min Rain = 0
KWA1 101242Z 09003KT 12/10 A3022 RMK A01 T01160098  RH  089%=      5-min Rain = 0
KWA1 101243Z 09003KT 12/10 A3022 RMK A01 T01160098  RH  089%=      5-min Rain = 0
KWA1 101244Z 09003KT 12/10 A3022 RMK A01 T01150097  RH  089%=      5-min Rain = 0
KWA1 101245Z 09003KT 12/10 A3022 RMK A01 T01150098  RH  089%=      5-min Rain = 0
KWA1 101246Z 09003KT 12/10 A3022 RMK A01 T01150098  RH  089%=      5-min Rain = 0
KWA1 101247Z 09003KT 12/10 A3022 RMK A01 T01150098  RH  089%=      5-min Rain = 0
KWA1 101248Z 09003KT 12/10 A3022 RMK A01 T01160098  RH  089%=      5-min Rain = 0
KWA1 101249Z 09003KT 12/10 A3022 RMK A01 T01170099  RH  089%=      5-min Rain = 0
KWA1 101250Z 10003KT 12/10 A3022 RMK A01 T01170099  RH  089%=      5-min Rain = 0
KWA1 101251Z 10003KT 12/10 A3022 RMK A01 T01180101  RH  089%=      5-min Rain = 0
KWA1 101252Z 10003KT 12/10 A3023 RMK A01 T01190101  RH  089%=      5-min Rain = 0
KWA1 101253Z 10003KT 12/10 A3023 RMK A01 T01200101  RH  089%=      5-min Rain = 0
KWA1 101254Z 10003KT 12/10 A3023 RMK A01 T01200102  RH  088%=      5-min Rain = 0
KWA1 101255Z 11003KT 12/10 A3023 RMK A01 T01210102  RH  088%=      5-min Rain = 0
KWA1 101256Z 11003KT 12/10 A3023 RMK A01 T01210103  RH  088%=      5-min Rain = 0
KWA1 101257Z 11003KT 12/10 A3023 RMK A01 T01220103  RH  088%=      5-min Rain = 0
KWA1 101258Z 10003KT 12/10 A3023 RMK A01 T01220103  RH  088%=      5-min Rain = 0
KWA1 101259Z 10003KT 12/10 A3023 RMK A01 T01230104  RH  088%=      5-min Rain = 0
KWA1 101300Z 10003KT 12/10 A3023 RMK A01 T01240104  RH  088%=      5-min Rain = 0
KWA1 101301Z 10003KT 13/11 A3023 RMK A01 T01250105  RH  088%=      5-min Rain = 0
KWA1 101302Z 10003KT 13/11 A3023 RMK A01 T01260105  RH  087%=      5-min Rain = 0
KWA1 101303Z 09003KT 13/11 A3023 RMK A01 T01270106  RH  087%=      5-min Rain = 0
KWA1 101304Z 09003KT 13/11 A3023 RMK A01 T01280106  RH  086%=      5-min Rain = 0
KWA1 101305Z 09003KT 13/11 A3023 RMK A01 T01290106  RH  086%=      5-min Rain = 0
KWA1 101306Z 09003KT 13/11 A3023 RMK A01 T01290106  RH  086%=      5-min Rain = 0
KWA1 101307Z 10003KT 13/11 A3023 RMK A01 T01300106  RH  086%=      5-min Rain = 0
KWA1 101308Z 10003KT 13/11 A3023 RMK A01 T01310107  RH  085%=      5-min Rain = 0
KWA1 101309Z 10002KT 13/11 A3023 RMK A01 T01310108  RH  086%=      5-min Rain = 0
KWA1 101310Z 10002KT 13/11 A3023 RMK A01 T01320107  RH  085%=      5-min Rain = 0
KWA1 101311Z 10002KT 13/11 A3023 RMK A01 T01330108  RH  085%=      5-min Rain = 0
KWA1 101312Z 10002KT 13/11 A3023 RMK A01 T01340109  RH  085%=      5-min Rain = 0
KWA1 101313Z 09002KT 13/11 A3023 RMK A01 T01340108  RH  084%=      5-min Rain = 0
KWA1 101314Z 10003KT 14/11 A3023 RMK A01 T01350108  RH  084%=      5-min Rain = 0
KWA1 101315Z 09002KT 14/11 A3023 RMK A01 T01350108  RH  084%=      5-min Rain = 0
KWA1 101316Z 08002KT 13/11 A3023 RMK A01 T01340109  RH  085%=      5-min Rain = 0
KWA1 101317Z 09002KT 14/11 A3023 RMK A01 T01350110  RH  085%=      5-min Rain = 0
KWA1 101318Z 09002KT 14/11 A3023 RMK A01 T01350110  RH  084%=      5-min Rain = 0
KWA1 101319Z 09002KT 14/11 A3023 RMK A01 T01360111  RH  085%=      5-min Rain = 0
KWA1 101320Z 10001KT 14/11 A3023 RMK A01 T01360112  RH  085%=      5-min Rain = 0
KWA1 101321Z 09001KT 14/11 A3023 RMK A01 T01370112  RH  085%=      5-min Rain = 0
KWA1 101322Z 09001KT 14/11 A3023 RMK A01 T01380113  RH  085%=      5-min Rain = 0
KWA1 101323Z 09001KT 14/11 A3023 RMK A01 T01390113  RH  084%=      5-min Rain = 0
KWA1 101324Z 09001KT 14/11 A3023 RMK A01 T01400113  RH  084%=      5-min Rain = 0
KWA1 101325Z 09001KT 14/12 A3023 RMK A01 T01410115  RH  084%=      5-min Rain = 0
KWA1 101326Z 08001KT 14/11 A3024 RMK A01 T01420114  RH  083%=      5-min Rain = 0
KWA1 101327Z 09001KT 14/12 A3024 RMK A01 T01430116  RH  083%=      5-min Rain = 0
KWA1 101328Z 08002KT 14/12 A3024 RMK A01 T01440116  RH  083%=      5-min Rain = 0
KWA1 101329Z 07002KT 15/12 A3024 RMK A01 T01460117  RH  083%=      5-min Rain = 0
KWA1 101330Z 07002KT 15/12 A3024 RMK A01 T01460116  RH  082%=      5-min Rain = 0
KWA1 101331Z 08003KT 15/12 A3024 RMK A01 T01470116  RH  082%=      5-min Rain = 0
KWA1 101332Z 08003KT 15/12 A3024 RMK A01 T01480116  RH  081%=      5-min Rain = 0
KWA1 101333Z 07003KT 15/11 A3024 RMK A01 T01490114  RH  080%=      5-min Rain = 0
KWA1 101334Z 07003KT 15/12 A3024 RMK A01 T01490115  RH  080%=      5-min Rain = 0
KWA1 101335Z 07003KT 15/12 A3024 RMK A01 T01500118  RH  081%=      5-min Rain = 0
KWA1 101336Z 07003KT 15/12 A3024 RMK A01 T01510117  RH  080%=      5-min Rain = 0
KWA1 101337Z 07003KT 15/12 A3024 RMK A01 T01520117  RH  079%=      5-min Rain = 0
KWA1 101338Z 08003KT 15/12 A3024 RMK A01 T01520116  RH  079%=      5-min Rain = 0
KWA1 101339Z 07002KT 15/12 A3024 RMK A01 T01530117  RH  079%=      5-min Rain = 0
KWA1 101340Z 07002KT 15/12 A3024 RMK A01 T01540119  RH  080%=      5-min Rain = 0
KWA1 101341Z 07002KT 16/12 A3024 RMK A01 T01550120  RH  079%=      5-min Rain = 0
KWA1 101342Z 07002KT 16/12 A3024 RMK A01 T01560119  RH  078%=      5-min Rain = 0
KWA1 101343Z 07003KT 16/12 A3024 RMK A01 T01570119  RH  078%=      5-min Rain = 0
KWA1 101344Z 06002KT 16/12 A3024 RMK A01 T01580119  RH  078%=      5-min Rain = 0
KWA1 101345Z 06002KT 16/12 A3024 RMK A01 T01580118  RH  077%=      5-min Rain = 0
KWA1 101346Z 07002KT 16/12 A3024 RMK A01 T01590120  RH  077%=      5-min Rain = 0
KWA1 101347Z 07002KT 16/12 A3024 RMK A01 T01590117  RH  076%=      5-min Rain = 0
KWA1 101348Z 07002KT 16/12 A3024 RMK A01 T01590116  RH  075%=      5-min Rain = 0
KWA1 101349Z 07002KT 16/12 A3024 RMK A01 T01590118  RH  077%=      5-min Rain = 0
KWA1 101350Z 06002KT 16/12 A3024 RMK A01 T01600119  RH  076%=      5-min Rain = 0
KWA1 101351Z 06002KT 16/12 A3024 RMK A01 T01620120  RH  076%=      5-min Rain = 0
KWA1 101352Z 05002KT 16/12 A3024 RMK A01 T01630121  RH  076%=      5-min Rain = 0
KWA1 101353Z 04002KT 16/12 A3024 RMK A01 T01640119  RH  074%=      5-min Rain = 0
KWA1 101354Z 04002KT 16/12 A3024 RMK A01 T01640120  RH  075%=      5-min Rain = 0
KWA1 101355Z 04002KT 16/12 A3024 RMK A01 T01640120  RH  075%=      5-min Rain = 0
KWA1 101356Z 04002KT 17/12 A3024 RMK A01 T01650119  RH  075%=      5-min Rain = 0
KWA1 101357Z 04003KT 17/12 A3024 RMK A01 T01650119  RH  074%=      5-min Rain = 0
KWA1 101358Z 05002KT 16/12 A3024 RMK A01 T01640120  RH  075%=      5-min Rain = 0
KWA1 101359Z 05002KT 17/12 A3024 RMK A01 T01650122  RH  076%=      5-min Rain = 0
KWA1 101400Z 06003KT 17/12 A3024 RMK A01 T01670120  RH  074%=      5-min Rain = 0
KWA1 101401Z 06003KT 17/12 A3024 RMK A01 T01670120  RH  074%=      5-min Rain = 0
KWA1 101402Z 06002KT 17/12 A3024 RMK A01 T01680120  RH  073%=      5-min Rain = 0
KWA1 101403Z 07002KT 17/12 A3024 RMK A01 T01690119  RH  072%=      5-min Rain = 0
KWA1 101404Z 06002KT 17/12 A3024 RMK A01 T01690119  RH  072%=      5-min Rain = 0
KWA1 101405Z 06002KT 17/12 A3024 RMK A01 T01700119  RH  072%=      5-min Rain = 0
KWA1 101406Z 05001KT 17/12 A3024 RMK A01 T01700121  RH  073%=      5-min Rain = 0
KWA1 101407Z 06001KT 17/12 A3024 RMK A01 T01710121  RH  072%=      5-min Rain = 0
KWA1 101408Z 08002KT 17/12 A3024 RMK A01 T01720122  RH  072%=      5-min Rain = 0
KWA1 101409Z 09002KT 17/12 A3024 RMK A01 T01740121  RH  071%=      5-min Rain = 0
KWA1 101410Z 08002KT 18/12 A3024 RMK A01 T01750120  RH  070%=      5-min Rain = 0
KWA1 101411Z 07002KT 18/12 A3024 RMK A01 T01760120  RH  070%=      5-min Rain = 0
KWA1 101412Z 08003KT 18/12 A3024 RMK A01 T01770120  RH  069%=      5-min Rain = 0
KWA1 101413Z 09002KT 18/12 A3024 RMK A01 T01780118  RH  068%=      5-min Rain = 0
KWA1 101414Z 08003KT 18/12 A3024 RMK A01 T01770120  RH  069%=      5-min Rain = 0
KWA1 101415Z 09001KT 18/12 A3024 RMK A01 T01780122  RH  069%=      5-min Rain = 0
KWA1 101421Z 08002KT 18/12 A3024 RMK A01 T01820119  RH  066%=      5-min Rain = 0
KWA1 101422Z 07002KT 18/12 A3024 RMK A01 T01820117  RH  066%=      5-min Rain = 0
KWA1 101423Z 08002KT 18/12 A3024 RMK A01 T01830120  RH  067%=      5-min Rain = 0
KWA1 101424Z 06001KT 18/12 A3024 RMK A01 T01840119  RH  066%=      5-min Rain = 0
KWA1 101425Z 03001KT 19/12 A3024 RMK A01 T01850120  RH  066%=      5-min Rain = 0
KWA1 101426Z 04001KT 19/12 A3024 RMK A01 T01860119  RH  065%=      5-min Rain = 0
KWA1 101427Z 07000KT 19/12 A3024 RMK A01 T01860121  RH  066%=      5-min Rain = 0
KWA1 101428Z 09001KT 19/12 A3024 RMK A01 T01880122  RH  065%=      5-min Rain = 0
KWA1 101429Z 07001KT 19/12 A3024 RMK A01 T01900120  RH  064%=      5-min Rain = 0
KWA1 101430Z 09000KT 19/12 A3024 RMK A01 T01910118  RH  062%=      5-min Rain = 0
KWA1 101431Z 13001KT 19/12 A3024 RMK A01 T01920118  RH  062%=      5-min Rain = 0
KWA1 101432Z 15001KT 19/12 A3024 RMK A01 T01920120  RH  063%=      5-min Rain = 0
KWA1 101433Z 15001KT 19/12 A3024 RMK A01 T01920118  RH  062%=      5-min Rain = 0
KWA1 101434Z 16000KT 19/12 A3025 RMK A01 T01920120  RH  063%=      5-min Rain = 0
KWA1 101435Z 14000KT 19/12 A3025 RMK A01 T01930121  RH  063%=      5-min Rain = 0
KWA1 101436Z 11002KT 19/12 A3025 RMK A01 T01940122  RH  063%=      5-min Rain = 0
KWA1 101437Z 10001KT 20/12 A3025 RMK A01 T01960123  RH  063%=      5-min Rain = 0
KWA1 101438Z 11001KT 20/12 A3025 RMK A01 T01970122  RH  062%=      5-min Rain = 0
KWA1 101439Z 11001KT 20/12 A3025 RMK A01 T01970121  RH  062%=      5-min Rain = 0
KWA1 101440Z 10001KT 20/12 A3025 RMK A01 T01980123  RH  062%=      5-min Rain = 0
KWA1 101441Z 08002KT 20/13 A3025 RMK A01 T01990126  RH  063%=      5-min Rain = 0
KWA1 101442Z 11002KT 20/13 A3025 RMK A01 T02000126  RH  062%=      5-min Rain = 0
KWA1 101443Z 12002KT 20/12 A3025 RMK A01 T02010122  RH  061%=      5-min Rain = 0
KWA1 101444Z 13002KT 20/12 A3025 RMK A01 T02000123  RH  061%=      5-min Rain = 0
KWA1 101445Z 13001KT 20/12 A3025 RMK A01 T02000122  RH  061%=      5-min Rain = 0
KWA1 101446Z 12001KT 20/12 A3025 RMK A01 T02010121  RH  060%=      5-min Rain = 0
KWA1 101447Z 11002KT 20/12 A3025 RMK A01 T02010124  RH  061%=      5-min Rain = 0
KWA1 101448Z 10002KT 20/13 A3025 RMK A01 T02010127  RH  062%=      5-min Rain = 0
KWA1 101449Z 09002KT 20/12 A3025 RMK A01 T02020123  RH  060%=      5-min Rain = 0
KWA1 101450Z 09002KT 20/12 A3025 RMK A01 T02030124  RH  060%=      5-min Rain = 0
KWA1 101451Z 08002KT 20/13 A3025 RMK A01 T02040127  RH  061%=      5-min Rain = 0
KWA1 101452Z 10002KT 20/13 A3025 RMK A01 T02040128  RH  061%=      5-min Rain = 0
KWA1 101453Z 09001KT 21/13 A3025 RMK A01 T02050127  RH  061%=      5-min Rain = 0
KWA1 101454Z 10001KT 21/12 A3025 RMK A01 T02060124  RH  059%=      5-min Rain = 0
KWA1 101455Z 07002KT 21/13 A3025 RMK A01 T02070126  RH  060%=      5-min Rain = 0
KWA1 101456Z 07002KT 21/13 A3025 RMK A01 T02080129  RH  061%=      5-min Rain = 0
KWA1 101457Z 08001KT 21/13 A3025 RMK A01 T02070125  RH  059%=      5-min Rain = 0
KWA1 101458Z 08001KT 21/12 A3025 RMK A01 T02070124  RH  059%=      5-min Rain = 0
KWA1 101459Z 07001KT 21/13 A3025 RMK A01 T02070126  RH  059%=      5-min Rain = 0
KWA1 101500Z 04001KT 21/13 A3025 RMK A01 T02080127  RH  060%=      5-min Rain = 0
KWA1 101501Z 04002KT 21/13 A3025 RMK A01 T02090127  RH  059%=      5-min Rain = 0
KWA1 101502Z 07003KT 21/13 A3025 RMK A01 T02090128  RH  060%=      5-min Rain = 0
KWA1 101503Z 06003KT 21/13 A3025 RMK A01 T02100126  RH  058%=      5-min Rain = 0
KWA1 101504Z 06002KT 21/12 A3025 RMK A01 T02090124  RH  058%=      5-min Rain = 0
KWA1 101505Z 07002KT 21/13 A3025 RMK A01 T02080125  RH  059%=      5-min Rain = 0
KWA1 101506Z 06002KT 21/13 A3025 RMK A01 T02090129  RH  060%=      5-min Rain = 0
KWA1 101507Z 08001KT 21/13 A3025 RMK A01 T02100129  RH  060%=      5-min Rain = 0
KWA1 101508Z 06003KT 21/13 A3025 RMK A01 T02110126  RH  058%=      5-min Rain = 0
KWA1 101509Z 07003KT 21/13 A3025 RMK A01 T02120130  RH  059%=      5-min Rain = 0
KWA1 101510Z 12003KT 21/13 A3025 RMK A01 T02120128  RH  058%=      5-min Rain = 0
KWA1 101511Z 11002KT 21/13 A3025 RMK A01 T02120128  RH  059%=      5-min Rain = 0
KWA1 101512Z 05002KT 21/13 A3025 RMK A01 T02120129  RH  059%=      5-min Rain = 0
KWA1 101513Z 07004KT 21/13 A3025 RMK A01 T02130127  RH  058%=      5-min Rain = 0
KWA1 101514Z 09003KT 21/13 A3025 RMK A01 T02130130  RH  059%=      5-min Rain = 0
KWA1 101515Z 10004KT 21/13 A3025 RMK A01 T02140130  RH  059%=      5-min Rain = 0
KWA1 101516Z 11004KT 21/13 A3025 RMK A01 T02140125  RH  057%=      5-min Rain = 0
KWA1 101517Z 11003KT 21/13 A3025 RMK A01 T02140128  RH  058%=      5-min Rain = 0
KWA1 101518Z 11003KT 21/13 A3025 RMK A01 T02140127  RH  057%=      5-min Rain = 0
KWA1 101519Z 12003KT 22/13 A3025 RMK A01 T02150129  RH  058%=      5-min Rain = 0
KWA1 101520Z 11004KT 22/13 A3025 RMK A01 T02160130  RH  058%=      5-min Rain = 0
KWA1 101521Z 10004KT 22/13 A3025 RMK A01 T02160130  RH  058%=      5-min Rain = 0
KWA1 101522Z 11002KT 22/13 A3025 RMK A01 T02150127  RH  057%=      5-min Rain = 0
KWA1 101523Z 10005KT 22/13 A3025 RMK A01 T02150130  RH  058%=      5-min Rain = 0
KWA1 101524Z 09004KT 22/13 A3026 RMK A01 T02160129  RH  058%=      5-min Rain = 0
KWA1 101525Z 12004KT 22/13 A3025 RMK A01 T02150127  RH  057%=      5-min Rain = 0
KWA1 101526Z 14004KT 21/13 A3025 RMK A01 T02140127  RH  058%=      5-min Rain = 0
KWA1 101527Z 14004KT 21/13 A3025 RMK A01 T02140129  RH  058%=      5-min Rain = 0
KWA1 101528Z 09002KT 21/13 A3025 RMK A01 T02140130  RH  059%=      5-min Rain = 0
KWA1 101529Z 13004KT 22/13 A3025 RMK A01 T02150130  RH  058%=      5-min Rain = 0
KWA1 101530Z 10004KT 22/13 A3025 RMK A01 T02160130  RH  058%=      5-min Rain = 0
KWA1 101531Z 10001KT 22/13 A3025 RMK A01 T02160131  RH  058%=      5-min Rain = 0
KWA1 101532Z 11001KT 22/13 A3025 RMK A01 T02170131  RH  058%=      5-min Rain = 0
KWA1 101533Z 13002KT 22/13 A3025 RMK A01 T02180132  RH  058%=      5-min Rain = 0
KWA1 101534Z 13004KT 22/14 A3025 RMK A01 T02200135  RH  059%=      5-min Rain = 0
KWA1 101535Z 13004KT 22/13 A3026 RMK A01 T02210134  RH  058%=      5-min Rain = 0
KWA1 101536Z 10006KT 22/13 A3026 RMK A01 T02220134  RH  057%=      5-min Rain = 0
KWA1 101537Z 09004KT 22/13 A3026 RMK A01 T02220132  RH  057%=      5-min Rain = 0
KWA1 101538Z 11003KT 22/13 A3026 RMK A01 T02200133  RH  058%=      5-min Rain = 0
KWA1 101539Z 13004KT 22/13 A3026 RMK A01 T02210132  RH  057%=      5-min Rain = 0
KWA1 101540Z 15003KT 22/13 A3026 RMK A01 T02210132  RH  057%=      5-min Rain = 0
KWA1 101541Z 15003KT 22/13 A3026 RMK A01 T02210132  RH  057%=      5-min Rain = 0
KWA1 101542Z 15003KT 22/13 A3026 RMK A01 T02200130  RH  056%=      5-min Rain = 0
KWA1 101543Z 17004KT 22/13 A3026 RMK A01 T02200133  RH  058%=      5-min Rain = 0
KWA1 101544Z 12003KT 22/13 A3026 RMK A01 T02210132  RH  057%=      5-min Rain = 0
KWA1 101545Z 08003KT 22/13 A3026 RMK A01 T02210131  RH  057%=      5-min Rain = 0
KWA1 101546Z 12004KT 22/13 A3026 RMK A01 T02200132  RH  057%=      5-min Rain = 0
KWA1 101547Z 09003KT 22/13 A3026 RMK A01 T02210133  RH  058%=      5-min Rain = 0
KWA1 101548Z 10004KT 22/14 A3026 RMK A01 T02210135  RH  058%=      5-min Rain = 0
KWA1 101549Z 13004KT 22/13 A3026 RMK A01 T02230132  RH  057%=      5-min Rain = 0
KWA1 101550Z 11002KT 22/13 A3026 RMK A01 T02220130  RH  056%=      5-min Rain = 0
KWA1 101551Z 09001KT 22/13 A3026 RMK A01 T02220132  RH  057%=      5-min Rain = 0
KWA1 101552Z 09003KT 22/13 A3026 RMK A01 T02230133  RH  057%=      5-min Rain = 0
KWA1 101553Z 09003KT 22/14 A3026 RMK A01 T02240135  RH  057%=      5-min Rain = 0
KWA1 101554Z 08003KT 23/14 A3026 RMK A01 T02250137  RH  057%=      5-min Rain = 0
KWA1 101555Z 11004KT 23/14 A3026 RMK A01 T02250137  RH  057%=      5-min Rain = 0
KWA1 101556Z 12002KT 23/13 A3026 RMK A01 T02260134  RH  056%=      5-min Rain = 0
KWA1 101557Z 14005KT 23/14 A3026 RMK A01 T02270136  RH  056%=      5-min Rain = 0
KWA1 101558Z 16005KT 23/14 A3026 RMK A01 T02290138  RH  056%=      5-min Rain = 0
KWA1 101559Z 14005KT 23/14 A3026 RMK A01 T02290139  RH  057%=      5-min Rain = 0
KWA1 101600Z 13003KT 23/14 A3025 RMK A01 T02290136  RH  056%=      5-min Rain = 0
KWA1 101601Z 13004KT 23/13 A3025 RMK A01 T02300133  RH  055%=      5-min Rain = 0
KWA1 101602Z 13003KT 23/14 A3025 RMK A01 T02290135  RH  056%=      5-min Rain = 0
KWA1 101603Z 11002KT 23/14 A3025 RMK A01 T02290135  RH  055%=      5-min Rain = 0
KWA1 101604Z 11002KT 23/14 A3025 RMK A01 T02310135  RH  055%=      5-min Rain = 0
KWA1 101605Z 10002KT 23/14 A3025 RMK A01 T02320137  RH  055%=      5-min Rain = 0
KWA1 101606Z 10005KT 23/14 A3025 RMK A01 T02330136  RH  054%=      5-min Rain = 0
KWA1 101607Z 07003KT 23/14 A3025 RMK A01 T02320138  RH  055%=      5-min Rain = 0
KWA1 101608Z 05002KT 23/14 A3025 RMK A01 T02320139  RH  056%=      5-min Rain = 0
KWA1 101609Z 08004KT 23/14 A3025 RMK A01 T02330142  RH  056%=      5-min Rain = 0
KWA1 101610Z 11006KT 23/14 A3025 RMK A01 T02330141  RH  056%=      5-min Rain = 0
KWA1 101611Z 13007KT 23/14 A3025 RMK A01 T02330137  RH  055%=      5-min Rain = 0
KWA1 101612Z 13004KT 23/14 A3025 RMK A01 T02320136  RH  055%=      5-min Rain = 0
KWA1 101613Z 13004KT 23/14 A3025 RMK A01 T02300136  RH  055%=      5-min Rain = 0
KWA1 101614Z 16003KT 23/14 A3025 RMK A01 T02310136  RH  055%=      5-min Rain = 0
KWA1 101615Z 20001KT 23/14 A3025 RMK A01 T02310136  RH  055%=      5-min Rain = 0
KWA1 101616Z 21002KT 23/13 A3025 RMK A01 T02310134  RH  054%=      5-min Rain = 0
KWA1 101617Z 18001KT 23/14 A3025 RMK A01 T02310135  RH  055%=      5-min Rain = 0
KWA1 101618Z 14002KT 23/14 A3025 RMK A01 T02330140  RH  056%=      5-min Rain = 0
KWA1 101619Z 11006KT 24/14 A3025 RMK A01 T02350141  RH  055%=      5-min Rain = 0
KWA1 101620Z 12009KT 24/14 A3025 RMK A01 T02370139  RH  054%=      5-min Rain = 0
KWA1 101621Z 12006KT 24/14 A3025 RMK A01 T02360136  RH  053%=      5-min Rain = 0
KWA1 101622Z 12004KT 23/13 A3025 RMK A01 T02340134  RH  053%=      5-min Rain = 0
KWA1 101623Z 11003KT 23/14 A3025 RMK A01 T02330136  RH  054%=      5-min Rain = 0
KWA1 101624Z 11005KT 23/14 A3025 RMK A01 T02340139  RH  055%=      5-min Rain = 0
KWA1 101625Z 10004KT 24/13 A3025 RMK A01 T02360131  RH  052%=      5-min Rain = 0
KWA1 101626Z 09004KT 23/13 A3025 RMK A01 T02340131  RH  052%=      5-min Rain = 0
KWA1 101627Z 12006KT 23/14 A3025 RMK A01 T02320135  RH  054%=      5-min Rain = 0
KWA1 101628Z 13002KT 23/14 A3025 RMK A01 T02340135  RH  054%=      5-min Rain = 0
KWA1 101629Z 08000KT 24/14 A3025 RMK A01 T02350135  RH  053%=      5-min Rain = 0
KWA1 101630Z 07002KT 24/14 A3025 RMK A01 T02370135  RH  053%=      5-min Rain = 0
KWA1 101631Z 05004KT 24/14 A3025 RMK A01 T02370141  RH  055%=      5-min Rain = 0
KWA1 101632Z 05005KT 24/14 A3025 RMK A01 T02360143  RH  056%=      5-min Rain = 0
KWA1 101633Z 04005KT 24/14 A3025 RMK A01 T02380144  RH  056%=      5-min Rain = 0
KWA1 101634Z 03003KT 24/14 A3025 RMK A01 T02380143  RH  055%=      5-min Rain = 0
KWA1 101635Z 09002KT 24/14 A3025 RMK A01 T02390144  RH  055%=      5-min Rain = 0
KWA1 101636Z 14005KT 24/14 A3025 RMK A01 T02410140  RH  053%=      5-min Rain = 0
KWA1 101637Z 15004KT 24/14 A3025 RMK A01 T02410136  RH  052%=      5-min Rain = 0
KWA1 101638Z 16003KT 24/14 A3025 RMK A01 T02400135  RH  052%=      5-min Rain = 0
KWA1 101639Z 12004KT 24/14 A3025 RMK A01 T02390140  RH  054%=      5-min Rain = 0
KWA1 101640Z 14005KT 24/14 A3025 RMK A01 T02410137  RH  052%=      5-min Rain = 0
KWA1 101641Z 12004KT 24/14 A3025 RMK A01 T02400137  RH  052%=      5-min Rain = 0
KWA1 101642Z 12003KT 24/14 A3025 RMK A01 T02400140  RH  053%=      5-min Rain = 0
KWA1 101643Z 11003KT 24/14 A3025 RMK A01 T02410136  RH  052%=      5-min Rain = 0
KWA1 101644Z 09002KT 24/14 A3025 RMK A01 T02410138  RH  053%=      5-min Rain = 0
KWA1 101645Z 11003KT 24/14 A3024 RMK A01 T02420137  RH  052%=      5-min Rain = 0
KWA1 101646Z 10003KT 24/14 A3024 RMK A01 T02410139  RH  053%=      5-min Rain = 0
KWA1 101647Z 11002KT 24/14 A3024 RMK A01 T02430139  RH  052%=      5-min Rain = 0
KWA1 101648Z 12006KT 24/14 A3024 RMK A01 T02440141  RH  053%=      5-min Rain = 0
KWA1 101649Z 11005KT 24/14 A3024 RMK A01 T02440137  RH  051%=      5-min Rain = 0
KWA1 101650Z 09005KT 24/14 A3024 RMK A01 T02420139  RH  052%=      5-min Rain = 0
KWA1 101651Z 10002KT 24/14 A3024 RMK A01 T02420135  RH  051%=      5-min Rain = 0
KWA1 101652Z 11001KT 24/14 A3024 RMK A01 T02420139  RH  053%=      5-min Rain = 0
KWA1 101653Z 14006KT 24/14 A3024 RMK A01 T02440138  RH  052%=      5-min Rain = 0
KWA1 101654Z 12008KT 25/14 A3024 RMK A01 T02450139  RH  052%=      5-min Rain = 0
KWA1 101655Z 12005KT 24/14 A3024 RMK A01 T02440138  RH  052%=      5-min Rain = 0
KWA1 101656Z 11005KT 24/14 A3024 RMK A01 T02420136  RH  051%=      5-min Rain = 0
KWA1 101657Z 13006KT 24/14 A3024 RMK A01 T02420139  RH  052%=      5-min Rain = 0
KWA1 101658Z 13006KT 24/14 A3024 RMK A01 T02430141  RH  053%=      5-min Rain = 0
KWA1 101659Z 11007KT 24/14 A3024 RMK A01 T02440141  RH  052%=      5-min Rain = 0
KWA1 101700Z 10004KT 24/14 A3024 RMK A01 T02440140  RH  052%=      5-min Rain = 0
KWA1 101701Z 06002KT 24/14 A3024 RMK A01 T02440140  RH  052%=      5-min Rain = 0
KWA1 101702Z 05003KT 24/14 A3024 RMK A01 T02440140  RH  052%=      5-min Rain = 0
KWA1 101703Z 06004KT 24/14 A3024 RMK A01 T02440143  RH  053%=      5-min Rain = 0
KWA1 101704Z 10004KT 25/14 A3024 RMK A01 T02450140  RH  052%=      5-min Rain = 0
KWA1 101705Z 12006KT 25/14 A3024 RMK A01 T02450140  RH  052%=      5-min Rain = 0
KWA1 101706Z 11004KT 25/14 A3024 RMK A01 T02460141  RH  052%=      5-min Rain = 0
KWA1 101707Z 10006KT 25/14 A3024 RMK A01 T02480143  RH  052%=      5-min Rain = 0
KWA1 101708Z 10006KT 25/14 A3024 RMK A01 T02490140  RH  051%=      5-min Rain = 0
KWA1 101709Z 12007KT 25/14 A3024 RMK A01 T02480143  RH  052%=      5-min Rain = 0
KWA1 101710Z 12007KT 25/14 A3024 RMK A01 T02480141  RH  051%=      5-min Rain = 0
KWA1 101711Z 11005KT 25/14 A3024 RMK A01 T02490144  RH  052%=      5-min Rain = 0
KWA1 101712Z 10004KT 25/14 A3024 RMK A01 T02500139  RH  050%=      5-min Rain = 0
KWA1 101713Z 07004KT 25/14 A3024 RMK A01 T02490139  RH  050%=      5-min Rain = 0
KWA1 101714Z 06003KT 25/14 A3024 RMK A01 T02480141  RH  051%=      5-min Rain = 0
KWA1 101715Z 04006KT 25/14 A3024 RMK A01 T02480142  RH  051%=      5-min Rain = 0
KWA1 101716Z 03004KT 25/14 A3024 RMK A01 T02480141  RH  052%=      5-min Rain = 0
KWA1 101717Z 03003KT 25/15 A3024 RMK A01 T02480146  RH  053%=      5-min Rain = 0
KWA1 101718Z 09003KT 25/14 A3023 RMK A01 T02500142  RH  051%=      5-min Rain = 0
KWA1 101719Z 09008KT 25/14 A3024 RMK A01 T02520142  RH  051%=      5-min Rain = 0
KWA1 101720Z 09008KT 25/14 A3024 RMK A01 T02520138  RH  049%=      5-min Rain = 0
KWA1 101721Z 08007KT 25/14 A3024 RMK A01 T02500136  RH  049%=      5-min Rain = 0
KWA1 101722Z 07007KT 25/14 A3024 RMK A01 T02480139  RH  051%=      5-min Rain = 0
KWA1 101723Z 06005KT 25/14 A3023 RMK A01 T02480137  RH  050%=      5-min Rain = 0
KWA1 101724Z 07006KT 25/14 A3023 RMK A01 T02470139  RH  051%=      5-min Rain = 0
KWA1 101725Z 06004KT 25/14 A3023 RMK A01 T02480136  RH  050%=      5-min Rain = 0
KWA1 101726Z 07002KT 25/13 A3023 RMK A01 T02490133  RH  049%=      5-min Rain = 0
KWA1 101727Z 12004KT 25/13 A3023 RMK A01 T02490134  RH  049%=      5-min Rain = 0
KWA1 101728Z 16001KT 25/13 A3023 RMK A01 T02480132  RH  048%=      5-min Rain = 0
KWA1 101729Z 10003KT 25/13 A3023 RMK A01 T02480133  RH  049%=      5-min Rain = 0
KWA1 101730Z 05003KT 25/14 A3023 RMK A01 T02480138  RH  050%=      5-min Rain = 0
KWA1 101731Z 05004KT 25/14 A3023 RMK A01 T02500141  RH  051%=      5-min Rain = 0
KWA1 101732Z 03007KT 25/14 A3023 RMK A01 T02520143  RH  051%=      5-min Rain = 0
KWA1 101733Z 05007KT 25/14 A3023 RMK A01 T02540140  RH  049%=      5-min Rain = 0
KWA1 101734Z 07006KT 25/14 A3023 RMK A01 T02530144  RH  051%=      5-min Rain = 0
KWA1 101735Z 06006KT 25/14 A3023 RMK A01 T02530143  RH  050%=      5-min Rain = 0
KWA1 101736Z 06005KT 25/15 A3023 RMK A01 T02540145  RH  051%=      5-min Rain = 0
KWA1 101737Z 11005KT 26/15 A3023 RMK A01 T02560145  RH  050%=      5-min Rain = 0
KWA1 101738Z 12006KT 26/14 A3023 RMK A01 T02570138  RH  048%=      5-min Rain = 0
KWA1 101739Z 13004KT 26/13 A3023 RMK A01 T02550134  RH  047%=      5-min Rain = 0
KWA1 101740Z 10005KT 25/14 A3023 RMK A01 T02530138  RH  049%=      5-min Rain = 0
KWA1 101741Z 05003KT 25/14 A3023 RMK A01 T02540144  RH  050%=      5-min Rain = 0
KWA1 101742Z 09003KT 26/15 A3023 RMK A01 T02560145  RH  050%=      5-min Rain = 0
KWA1 101743Z 10005KT 26/14 A3023 RMK A01 T02580140  RH  048%=      5-min Rain = 0
KWA1 101744Z 12004KT 26/14 A3023 RMK A01 T02570141  RH  049%=      5-min Rain = 0
KWA1 101745Z 13003KT 26/14 A3022 RMK A01 T02570139  RH  048%=      5-min Rain = 0
KWA1 101746Z 08004KT 26/14 A3022 RMK A01 T02580143  RH  049%=      5-min Rain = 0
KWA1 101747Z 05008KT 26/14 A3022 RMK A01 T02600142  RH  048%=      5-min Rain = 0
KWA1 101748Z 05009KT 26/14 A3022 RMK A01 T02590139  RH  047%=      5-min Rain = 0
KWA1 101749Z 04006KT 26/14 A3022 RMK A01 T02570142  RH  049%=      5-min Rain = 0
KWA1 101750Z 05005KT 26/14 A3022 RMK A01 T02580142  RH  049%=      5-min Rain = 0
KWA1 101751Z 04005KT 26/14 A3022 RMK A01 T02590144  RH  049%=      5-min Rain = 0
KWA1 101752Z 02005KT 26/14 A3022 RMK A01 T02610139  RH  047%=      5-min Rain = 0
KWA1 101753Z 03006KT 26/14 A3022 RMK A01 T02600136  RH  046%=      5-min Rain = 0
KWA1 101754Z 07007KT 26/14 A3022 RMK A01 T02580143  RH  049%=      5-min Rain = 0
KWA1 101755Z 07005KT 26/14 A3022 RMK A01 T02600140  RH  047%=      5-min Rain = 0
KWA1 101756Z 06006KT 26/15 A3022 RMK A01 T02620146  RH  049%=      5-min Rain = 0
KWA1 101757Z 07004KT 26/14 A3022 RMK A01 T02640135  RH  045%=      5-min Rain = 0
KWA1 101758Z 09006KT 26/13 A3022 RMK A01 T02610133  RH  045%=      5-min Rain = 0
KWA1 101759Z 09009KT 26/14 A3022 RMK A01 T02610136  RH  046%=      5-min Rain = 0
KWA1 101800Z 09008KT 26/14 A3022 RMK A01 T02620136  RH  046%=      5-min Rain = 0
KWA1 101801Z 12006KT 26/14 A3022 RMK A01 T02610137  RH  046%=      5-min Rain = 0
KWA1 101802Z 12005KT 26/13 A3022 RMK A01 T02610132  RH  045%=      5-min Rain = 0
KWA1 101803Z 12007KT 26/14 A3022 RMK A01 T02620136  RH  046%=      5-min Rain = 0
KWA1 101804Z 10008KT 26/14 A3022 RMK A01 T02620135  RH  045%=      5-min Rain = 0
KWA1 101805Z 10008KT 26/14 A3022 RMK A01 T02630138  RH  046%=      5-min Rain = 0
KWA1 101806Z 10007KT 26/13 A3022 RMK A01 T02620134  RH  045%=      5-min Rain = 0
KWA1 101807Z 10005KT 26/14 A3022 RMK A01 T02610137  RH  046%=      5-min Rain = 0
KWA1 101808Z 10006KT 26/13 A3022 RMK A01 T02610134  RH  045%=      5-min Rain = 0
KWA1 101809Z 10008KT 26/13 A3022 RMK A01 T02610132  RH  045%=      5-min Rain = 0
KWA1 101810Z 08008KT 26/14 A3022 RMK A01 T02620137  RH  046%=      5-min Rain = 0
KWA1 101811Z 08008KT 26/13 A3022 RMK A01 T02630134  RH  045%=      5-min Rain = 0
KWA1 101812Z 07008KT 26/14 A3022 RMK A01 T02620135  RH  046%=      5-min Rain = 0
KWA1 101813Z 08006KT 26/13 A3022 RMK A01 T02600134  RH  046%=      5-min Rain = 0
KWA1 101814Z 08008KT 26/14 A3022 RMK A01 T02590137  RH  047%=      5-min Rain = 0
KWA1 101815Z 07005KT 26/13 A3022 RMK A01 T02600134  RH  046%=      5-min Rain = 0
KWA1 101816Z 06005KT 26/14 A3021 RMK A01 T02610135  RH  046%=      5-min Rain = 0
KWA1 101817Z 05005KT 26/13 A3021 RMK A01 T02610132  RH  045%=      5-min Rain = 0
KWA1 101818Z 07002KT 26/13 A3021 RMK A01 T02610129  RH  044%=      5-min Rain = 0
KWA1 101819Z 04004KT 26/13 A3021 RMK A01 T02610130  RH  044%=      5-min Rain = 0
KWA1 101820Z 05005KT 26/13 A3021 RMK A01 T02620132  RH  045%=      5-min Rain = 0
KWA1 101821Z 08008KT 26/13 A3021 RMK A01 T02620129  RH  044%=      5-min Rain = 0
KWA1 101822Z 11007KT 26/12 A3021 RMK A01 T02620123  RH  042%=      5-min Rain = 0
KWA1 101823Z 10010KT 26/12 A3021 RMK A01 T02610121  RH  042%=      5-min Rain = 0
KWA1 101824Z 09008KT 26/12 A3021 RMK A01 T02630123  RH  042%=      5-min Rain = 0
KWA1 101825Z 09008KT 26/13 A3021 RMK A01 T02640128  RH  043%=      5-min Rain = 0
KWA1 101826Z 08010KT 27/13 A3021 RMK A01 T02650133  RH  044%=      5-min Rain = 0
KWA1 101827Z 08009KT 27/13 A3021 RMK A01 T02660128  RH  043%=      5-min Rain = 0
KWA1 101828Z 08009KT 27/13 A3021 RMK A01 T02660130  RH  043%=      5-min Rain = 0
KWA1 101829Z 09010KT 27/13 A3021 RMK A01 T02660129  RH  043%=      5-min Rain = 0
KWA1 101830Z 09009KT 27/13 A3021 RMK A01 T02660129  RH  043%=      5-min Rain = 0
KWA1 101831Z 10010KT 27/13 A3021 RMK A01 T02660127  RH  042%=      5-min Rain = 0
KWA1 101832Z 10008KT 27/12 A3021 RMK A01 T02660123  RH  041%=      5-min Rain = 0
KWA1 101833Z 10007KT 27/12 A3021 RMK A01 T02650122  RH  041%=      5-min Rain = 0
KWA1 101834Z 10005KT 27/12 A3021 RMK A01 T02650122  RH  041%=      5-min Rain = 0
KWA1 101835Z 12004KT 27/12 A3021 RMK A01 T02650124  RH  042%=      5-min Rain = 0
KWA1 101836Z 11001KT 26/12 A3021 RMK A01 T02640121  RH  041%=      5-min Rain = 0
KWA1 101837Z 16001KT 27/12 A3021 RMK A01 T02650122  RH  041%=      5-min Rain = 0
KWA1 101838Z 08004KT 27/12 A3021 RMK A01 T02670122  RH  041%=      5-min Rain = 0
KWA1 101839Z 11007KT 27/13 A3021 RMK A01 T02680127  RH  042%=      5-min Rain = 0
KWA1 101840Z 11005KT 27/13 A302 RMK A01 T02700125  RH  040%=      5-min Rain = 0
KWA1 101841Z 11007KT 27/13 A302 RMK A01 T02710125  RH  040%=      5-min Rain = 0
KWA1 101842Z 10007KT 27/13 A302 RMK A01 T02720129  RH  041%=      5-min Rain = 0
KWA1 101843Z 11008KT 27/13 A302 RMK A01 T02710130  RH  042%=      5-min Rain = 0
KWA1 101844Z 13007KT 27/13 A302 RMK A01 T02710127  RH  041%=      5-min Rain = 0
KWA1 101845Z 09010KT 27/13 A302 RMK A01 T02690130  RH  042%=      5-min Rain = 0
KWA1 101846Z 08009KT 27/13 A302 RMK A01 T02700130  RH  042%=      5-min Rain = 0
KWA1 101847Z 09009KT 27/13 A302 RMK A01 T02700129  RH  042%=      5-min Rain = 0
KWA1 101848Z 09010KT 27/13 A302 RMK A01 T02700130  RH  042%=      5-min Rain = 0
KWA1 101849Z 09010KT 27/13 A3021 RMK A01 T02690131  RH  042%=      5-min Rain = 0
KWA1 101850Z 10008KT 27/13 A3021 RMK A01 T02680128  RH  042%=      5-min Rain = 0
KWA1 101851Z 12004KT 27/13 A302 RMK A01 T02670133  RH  044%=      5-min Rain = 0
KWA1 101852Z 14003KT 27/13 A302 RMK A01 T02690126  RH  041%=      5-min Rain = 0
KWA1 101853Z 15005KT 27/13 A302 RMK A01 T02690128  RH  042%=      5-min Rain = 0
KWA1 101854Z 09004KT 27/13 A302 RMK A01 T02700130  RH  042%=      5-min Rain = 0
KWA1 101855Z 05006KT 27/13 A302 RMK A01 T02710130  RH  042%=      5-min Rain = 0
KWA1 101856Z 05006KT 27/13 A302 RMK A01 T02710129  RH  041%=      5-min Rain = 0
KWA1 101857Z 05006KT 27/13 A302 RMK A01 T02720133  RH  042%=      5-min Rain = 0
KWA1 101858Z 04003KT 27/13 A302 RMK A01 T02730130  RH  041%=      5-min Rain = 0
KWA1 101859Z 08003KT 28/13 A302 RMK A01 T02750132  RH  041%=      5-min Rain = 0
KWA1 101900Z 11003KT 28/12 A302 RMK A01 T02760122  RH  039%=      5-min Rain = 0
KWA1 101901Z 11004KT 27/12 A302 RMK A01 T02730121  RH  039%=      5-min Rain = 0
KWA1 101902Z 09008KT 27/12 A302 RMK A01 T02730121  RH  039%=      5-min Rain = 0
KWA1 101903Z 08007KT 27/12 A302 RMK A01 T02730124  RH  040%=      5-min Rain = 0
KWA1 101904Z 12006KT 27/12 A302 RMK A01 T02720123  RH  040%=      5-min Rain = 0
KWA1 101905Z 09008KT 27/12 A302 RMK A01 T02730123  RH  040%=      5-min Rain = 0
KWA1 101906Z 09008KT 27/12 A302 RMK A01 T02740123  RH  039%=      5-min Rain = 0
KWA1 101907Z 09007KT 27/12 A302 RMK A01 T02740122  RH  039%=      5-min Rain = 0
KWA1 101908Z 11007KT 27/12 A302 RMK A01 T02730122  RH  039%=      5-min Rain = 0
KWA1 101909Z 11007KT 27/12 A302 RMK A01 T02740118  RH  038%=      5-min Rain = 0
KWA1 101910Z 09003KT 27/13 A302 RMK A01 T02740127  RH  040%=      5-min Rain = 0
KWA1 101911Z 10004KT 28/12 A3019 RMK A01 T02770122  RH  038%=      5-min Rain = 0
KWA1 101912Z 10007KT 28/12 A3019 RMK A01 T02760123  RH  039%=      5-min Rain = 0
KWA1 101913Z 10005KT 28/12 A3019 RMK A01 T02750120  RH  038%=      5-min Rain = 0
KWA1 101914Z 08003KT 27/12 A3019 RMK A01 T02730120  RH  039%=      5-min Rain = 0
KWA1 101915Z 07002KT 27/12 A3019 RMK A01 T02730124  RH  040%=      5-min Rain = 0
KWA1 101916Z 14002KT 27/12 A3019 RMK A01 T02730124  RH  039%=      5-min Rain = 0
KWA1 101917Z 15005KT 27/12 A3019 RMK A01 T02740122  RH  039%=      5-min Rain = 0
KWA1 101918Z 17003KT 27/12 A3019 RMK A01 T02740121  RH  039%=      5-min Rain = 0
KWA1 101919Z 10003KT 27/13 A3019 RMK A01 T02740126  RH  040%=      5-min Rain = 0
KWA1 101920Z 05002KT 28/12 A3019 RMK A01 T02750121  RH  038%=      5-min Rain = 0
KWA1 101921Z 10004G9KT 27/12 A3019 RMK A01 T02740123  RH  039%=      5-min Rain = 0
KWA1 101922Z 09008KT 27/13 A3019 RMK A01 T02740126  RH  040%=      5-min Rain = 0
KWA1 101923Z 09007KT 28/13 A3019 RMK A01 T02750127  RH  040%=      5-min Rain = 0
KWA1 101924Z 09005KT 27/13 A3019 RMK A01 T02740127  RH  040%=      5-min Rain = 0
KWA1 101925Z 12004KT 27/13 A3019 RMK A01 T02740126  RH  040%=      5-min Rain = 0
KWA1 101926Z 09004KT 28/13 A3019 RMK A01 T02750127  RH  040%=      5-min Rain = 0
KWA1 101927Z 09005KT 28/13 A3019 RMK A01 T02760131  RH  041%=      5-min Rain = 0
KWA1 101928Z 09008KT 28/14 A3019 RMK A01 T02790137  RH  042%=      5-min Rain = 0
KWA1 101929Z 11007KT 28/13 A3019 RMK A01 T02790128  RH  039%=      5-min Rain = 0
KWA1 101930Z 09006KT 28/13 A3019 RMK A01 T02770130  RH  040%=      5-min Rain = 0
KWA1 101931Z 08006KT 28/13 A3019 RMK A01 T02770128  RH  040%=      5-min Rain = 0
KWA1 101932Z 06005KT 28/13 A3019 RMK A01 T02770131  RH  041%=      5-min Rain = 0
KWA1 101933Z 07004KT 28/13 A3018 RMK A01 T02780125  RH  039%=      5-min Rain = 0
KWA1 101934Z 07003KT 28/13 A3018 RMK A01 T02760126  RH  039%=      5-min Rain = 0
KWA1 101935Z 01004KT 28/13 A3018 RMK A01 T02760127  RH  040%=      5-min Rain = 0
KWA1 101936Z 04005KT 28/13 A3018 RMK A01 T02770126  RH  039%=      5-min Rain = 0
KWA1 101937Z 09007KT 28/13 A3018 RMK A01 T02770129  RH  040%=      5-min Rain = 0
KWA1 101938Z 09006KT 28/13 A3018 RMK A01 T02780128  RH  039%=      5-min Rain = 0
KWA1 101939Z 06008KT 28/13 A3018 RMK A01 T02820133  RH  040%=      5-min Rain = 0
KWA1 101940Z 06008KT 29/13 A3018 RMK A01 T02850131  RH  039%=      5-min Rain = 0
KWA1 101941Z 06007KT 29/13 A3018 RMK A01 T02860132  RH  039%=      5-min Rain = 0
KWA1 101942Z 05008KT 29/12 A3018 RMK A01 T02860124  RH  037%=      5-min Rain = 0
KWA1 101943Z 04008KT 28/13 A3018 RMK A01 T02840126  RH  038%=      5-min Rain = 0
KWA1 101944Z 03008KT 28/12 A3018 RMK A01 T02830123  RH  037%=      5-min Rain = 0
KWA1 101945Z 04008KT 28/12 A3018 RMK A01 T02820122  RH  037%=      5-min Rain = 0
KWA1 101946Z 05007KT 28/12 A3018 RMK A01 T02820124  RH  038%=      5-min Rain = 0
KWA1 101947Z 07005KT 28/12 A3018 RMK A01 T02800121  RH  037%=      5-min Rain = 0
KWA1 101948Z 07005KT 28/12 A3018 RMK A01 T02770118  RH  037%=      5-min Rain = 0
KWA1 101949Z 08005KT 28/12 A3018 RMK A01 T02760121  RH  038%=      5-min Rain = 0
KWA1 101950Z 06005KT 28/12 A3018 RMK A01 T02760122  RH  039%=      5-min Rain = 0
KWA1 101951Z 07009KT 28/13 A3018 RMK A01 T02770128  RH  040%=      5-min Rain = 0
KWA1 101952Z 07005KT 28/12 A3018 RMK A01 T02780121  RH  038%=      5-min Rain = 0
KWA1 101953Z 10002KT 28/12 A3018 RMK A01 T02770120  RH  038%=      5-min Rain = 0
KWA1 101954Z 09005KT 28/12 A3018 RMK A01 T02770123  RH  038%=      5-min Rain = 0
KWA1 101955Z 06004KT 28/12 A3018 RMK A01 T02790123  RH  038%=      5-min Rain = 0
KWA1 101956Z 01005KT 28/13 A3018 RMK A01 T02790125  RH  039%=      5-min Rain = 0
KWA1 101957Z 04005KT 28/12 A3018 RMK A01 T02800124  RH  038%=      5-min Rain = 0
KWA1 101958Z 06007KT 28/13 A3018 RMK A01 T02810132  RH  040%=      5-min Rain = 0
KWA1 101959Z 07008KT 28/13 A3018 RMK A01 T02840133  RH  039%=      5-min Rain = 0
KWA1 102000Z 08007KT 29/13 A3018 RMK A01 T02850130  RH  039%=      5-min Rain = 0
KWA1 102001Z 09006KT 28/13 A3018 RMK A01 T02840128  RH  038%=      5-min Rain = 0
KWA1 102002Z 07006KT 28/13 A3018 RMK A01 T02830128  RH  038%=      5-min Rain = 0
KWA1 102003Z 08005KT 28/13 A3018 RMK A01 T02820127  RH  038%=      5-min Rain = 0
KWA1 102004Z 10004KT 28/12 A3017 RMK A01 T02820123  RH  037%=      5-min Rain = 0
KWA1 102005Z 11002KT 28/12 A3017 RMK A01 T02800122  RH  037%=      5-min Rain = 0
KWA1 102006Z 12001KT 28/12 A3017 RMK A01 T02800117  RH  036%=      5-min Rain = 0
KWA1 102007Z 11004KT 28/12 A3017 RMK A01 T02800124  RH  038%=      5-min Rain = 0
KWA1 102008Z 09007KT 28/12 A3017 RMK A01 T02820124  RH  038%=      5-min Rain = 0
KWA1 102009Z 09011KT 28/13 A3017 RMK A01 T02820126  RH  038%=      5-min Rain = 0
KWA1 102010Z 08008KT 28/12 A3018 RMK A01 T02830120  RH  036%=      5-min Rain = 0
KWA1 102011Z 08006KT 28/12 A3017 RMK A01 T02810124  RH  038%=      5-min Rain = 0
KWA1 102012Z 09006KT 28/13 A3017 RMK A01 T02810126  RH  038%=      5-min Rain = 0
KWA1 102013Z 07007KT 29/13 A3017 RMK A01 T02850129  RH  038%=      5-min Rain = 0
KWA1 102014Z 08005KT 29/12 A3017 RMK A01 T02850122  RH  036%=      5-min Rain = 0
KWA1 102015Z 10005KT 28/12 A3017 RMK A01 T02820121  RH  037%=      5-min Rain = 0
KWA1 102016Z 07007KT 28/12 A3017 RMK A01 T02820122  RH  037%=      5-min Rain = 0
KWA1 102017Z 06006KT 28/12 A3017 RMK A01 T02820121  RH  037%=      5-min Rain = 0
KWA1 102018Z 07005KT 28/12 A3017 RMK A01 T02820120  RH  037%=      5-min Rain = 0
KWA1 102019Z 09004KT 28/12 A3017 RMK A01 T02810116  RH  036%=      5-min Rain = 0
KWA1 102020Z 07002KT 28/12 A3017 RMK A01 T02800120  RH  037%=      5-min Rain = 0
KWA1 102021Z 08005KT 28/12 A3017 RMK A01 T02820119  RH  036%=      5-min Rain = 0
KWA1 102022Z 08008KT 28/11 A3017 RMK A01 T02820112  RH  035%=      5-min Rain = 0
KWA1 102023Z 07006KT 28/11 A3017 RMK A01 T02820110  RH  034%=      5-min Rain = 0
KWA1 102024Z 05006KT 28/12 A3017 RMK A01 T02830123  RH  037%=      5-min Rain = 0
KWA1 102025Z 09006KT 29/13 A3017 RMK A01 T02880125  RH  037%=      5-min Rain = 0
KWA1 102026Z 07010KT 29/12 A3017 RMK A01 T02890120  RH  035%=      5-min Rain = 0
KWA1 102027Z 06009KT 29/13 A3017 RMK A01 T02870125  RH  037%=      5-min Rain = 0
KWA1 102028Z 06009KT 29/12 A3017 RMK A01 T02870121  RH  036%=      5-min Rain = 0
KWA1 102029Z 06011KT 29/12 A3017 RMK A01 T02870120  RH  036%=      5-min Rain = 0
KWA1 102030Z 06009KT 29/12 A3017 RMK A01 T02860117  RH  035%=      5-min Rain = 0
KWA1 102031Z 05006KT 28/11 A3017 RMK A01 T02840114  RH  035%=      5-min Rain = 0
KWA1 102032Z 03004KT 28/11 A3017 RMK A01 T02820113  RH  035%=      5-min Rain = 0
KWA1 102033Z 05004KT 28/12 A3016 RMK A01 T02820116  RH  036%=      5-min Rain = 0
KWA1 102034Z 05005KT 28/13 A3016 RMK A01 T02840126  RH  038%=      5-min Rain = 0
KWA1 102035Z 06006KT 29/12 A3016 RMK A01 T02880121  RH  036%=      5-min Rain = 0
KWA1 102036Z 05003KT 29/12 A3016 RMK A01 T02880120  RH  035%=      5-min Rain = 0
KWA1 102037Z 04004KT 29/12 A3016 RMK A01 T02880124  RH  036%=      5-min Rain = 0
KWA1 102038Z 05004KT 29/12 A3016 RMK A01 T02890115  RH  034%=      5-min Rain = 0
KWA1 102039Z 03004KT 29/12 A3016 RMK A01 T02880124  RH  036%=      5-min Rain = 0
KWA1 102040Z 06003KT 29/12 A3016 RMK A01 T02890116  RH  034%=      5-min Rain = 0
KWA1 102041Z 06001KT 29/12 A3016 RMK A01 T02890119  RH  035%=      5-min Rain = 0
KWA1 102042Z 06003KT 29/12 A3016 RMK A01 T02890118  RH  035%=      5-min Rain = 0
KWA1 102043Z 05007KT 29/12 A3016 RMK A01 T02890121  RH  035%=      5-min Rain = 0
KWA1 102044Z 05004KT 29/13 A3016 RMK A01 T02880125  RH  036%=      5-min Rain = 0
KWA1 102045Z 07006KT 29/13 A3016 RMK A01 T02900131  RH  038%=      5-min Rain = 0
KWA1 102046Z 09008KT 29/12 A3016 RMK A01 T02920124  RH  035%=      5-min Rain = 0
KWA1 102047Z 08010KT 29/13 A3016 RMK A01 T02930125  RH  036%=      5-min Rain = 0
KWA1 102048Z 09010KT 29/12 A3016 RMK A01 T02920119  RH  034%=      5-min Rain = 0
KWA1 102049Z 10007KT 29/12 A3016 RMK A01 T02900116  RH  034%=      5-min Rain = 0
KWA1 102050Z 09011KT 29/12 A3016 RMK A01 T02890119  RH  035%=      5-min Rain = 0
KWA1 102051Z 09011KT 29/12 A3016 RMK A01 T02900120  RH  035%=      5-min Rain = 0
KWA1 102052Z 09008KT 29/12 A3016 RMK A01 T02890115  RH  034%=      5-min Rain = 0
KWA1 102053Z 10007KT 29/12 A3016 RMK A01 T02870115  RH  035%=      5-min Rain = 0
KWA1 102054Z 10007KT 29/12 A3015 RMK A01 T02870116  RH  035%=      5-min Rain = 0
KWA1 102055Z 10006KT 29/12 A3015 RMK A01 T02880118  RH  035%=      5-min Rain = 0
KWA1 102056Z 10007G12KT 29/12 A3015 RMK A01 T02890115  RH  034%=      5-min Rain = 0
KWA1 102057Z 09008KT 29/12 A3015 RMK A01 T02890123  RH  036%=      5-min Rain = 0
KWA1 102058Z 08009KT 29/12 A3015 RMK A01 T02910123  RH  036%=      5-min Rain = 0
KWA1 102059Z 10008KT 29/12 A3015 RMK A01 T02910121  RH  035%=      5-min Rain = 0
KWA1 102100Z 12009KT 29/12 A3015 RMK A01 T02910117  RH  034%=      5-min Rain = 0
KWA1 102101Z 11008KT 29/12 A3015 RMK A01 T02890116  RH  034%=      5-min Rain = 0
KWA1 102102Z 10008KT 29/12 A3015 RMK A01 T02880118  RH  035%=      5-min Rain = 0
KWA1 102103Z 10006KT 29/12 A3015 RMK A01 T02890118  RH  035%=      5-min Rain = 0
KWA1 102104Z 09007KT 29/12 A3015 RMK A01 T02880120  RH  035%=      5-min Rain = 0
KWA1 102105Z 10005KT 29/12 A3015 RMK A01 T02880118  RH  035%=      5-min Rain = 0
KWA1 102106Z 08006KT 29/12 A3015 RMK A01 T02880120  RH  036%=      5-min Rain = 0
KWA1 102107Z 08006KT 29/12 A3015 RMK A01 T02880120  RH  035%=      5-min Rain = 0
KWA1 102108Z 09006KT 29/12 A3015 RMK A01 T02880119  RH  035%=      5-min Rain = 0
KWA1 102109Z 05006KT 29/12 A3015 RMK A01 T02880119  RH  035%=      5-min Rain = 0
KWA1 102110Z 06008KT 29/12 A3015 RMK A01 T02880124  RH  036%=      5-min Rain = 0
KWA1 102111Z 06010KT 29/12 A3015 RMK A01 T02900124  RH  036%=      5-min Rain = 0
KWA1 102112Z 07010KT 29/12 A3015 RMK A01 T02910124  RH  036%=      5-min Rain = 0
KWA1 102113Z 07011KT 29/12 A3015 RMK A01 T02910119  RH  034%=      5-min Rain = 0
KWA1 102114Z 04009KT 29/12 A3015 RMK A01 T02900121  RH  035%=      5-min Rain = 0
KWA1 102115Z 03008KT 29/12 A3015 RMK A01 T02890119  RH  035%=      5-min Rain = 0
KWA1 102116Z 04008KT 29/12 A3015 RMK A01 T02890119  RH  035%=      5-min Rain = 0
KWA1 102117Z 04006KT 29/13 A3015 RMK A01 T02880125  RH  037%=      5-min Rain = 0
KWA1 102118Z 05008KT 29/12 A3015 RMK A01 T02890119  RH  035%=      5-min Rain = 0
KWA1 102119Z 05008KT 29/12 A3015 RMK A01 T02880121  RH  035%=      5-min Rain = 0
KWA1 102120Z 06007KT 29/12 A3015 RMK A01 T02880118  RH  035%=      5-min Rain = 0
KWA1 102121Z 07007KT 29/12 A3015 RMK A01 T02870120  RH  036%=      5-min Rain = 0
KWA1 102122Z 07008KT 29/12 A3015 RMK A01 T02880118  RH  035%=      5-min Rain = 0
KWA1 102123Z 05006KT 29/12 A3015 RMK A01 T02880118  RH  035%=      5-min Rain = 0
KWA1 102124Z 08008G15KT 29/12 A3015 RMK A01 T02880117  RH  035%=      5-min Rain = 0
KWA1 102125Z 08012KT 29/12 A3015 RMK A01 T02880117  RH  035%=      5-min Rain = 0
KWA1 102126Z 06012KT 29/12 A3015 RMK A01 T02900116  RH  034%=      5-min Rain = 0
KWA1 102127Z 07009KT 29/12 A3015 RMK A01 T02910118  RH  034%=      5-min Rain = 0
KWA1 102128Z 06009KT 29/12 A3015 RMK A01 T02910117  RH  034%=      5-min Rain = 0
KWA1 102129Z 05010KT 29/12 A3015 RMK A01 T02910118  RH  034%=      5-min Rain = 0
KWA1 102130Z 06009KT 29/12 A3015 RMK A01 T02910116  RH  034%=      5-min Rain = 0
KWA1 102131Z 06006KT 29/11 A3014 RMK A01 T02900112  RH  033%=      5-min Rain = 0
KWA1 102132Z 05006KT 29/11 A3014 RMK A01 T02880111  RH  033%=      5-min Rain = 0
KWA1 102133Z 05007G12KT 29/12 A3014 RMK A01 T02870115  RH  034%=      5-min Rain = 0
KWA1 102134Z 05006KT 29/12 A3014 RMK A01 T02880117  RH  035%=      5-min Rain = 0
KWA1 102135Z 07007KT 29/12 A3014 RMK A01 T02890118  RH  035%=      5-min Rain = 0
KWA1 102136Z 07010KT 29/11 A3014 RMK A01 T02900113  RH  033%=      5-min Rain = 0
KWA1 102137Z 09008KT 29/11 A3014 RMK A01 T02890112  RH  033%=      5-min Rain = 0
KWA1 102138Z 09006KT 29/11 A3014 RMK A01 T02880107  RH  033%=      5-min Rain = 0
KWA1 102139Z 08005KT 29/11 A3014 RMK A01 T02880113  RH  034%=      5-min Rain = 0
KWA1 102140Z 05007KT 29/12 A3014 RMK A01 T02890123  RH  036%=      5-min Rain = 0
KWA1 102141Z 06007KT 29/12 A3014 RMK A01 T02920120  RH  035%=      5-min Rain = 0
KWA1 102142Z 04007KT 29/11 A3014 RMK A01 T02930112  RH  033%=      5-min Rain = 0
KWA1 102143Z 03006KT 29/11 A3014 RMK A01 T02900109  RH  033%=      5-min Rain = 0
KWA1 102144Z 04005KT 29/10 A3014 RMK A01 T02880104  RH  032%=      5-min Rain = 0
KWA1 102145Z 05005KT 29/11 A3014 RMK A01 T02870108  RH  033%=      5-min Rain = 0
KWA1 102146Z 06007KT 29/12 A3014 RMK A01 T02880116  RH  035%=      5-min Rain = 0
KWA1 102147Z 07011KT 29/11 A3014 RMK A01 T02890109  RH  033%=      5-min Rain = 0
KWA1 102148Z 07011KT 29/11 A3014 RMK A01 T02900109  RH  032%=      5-min Rain = 0
KWA1 102149Z 06010KT 29/11 A3014 RMK A01 T02900108  RH  032%=      5-min Rain = 0
KWA1 102150Z 05010KT 29/11 A3014 RMK A01 T02890109  RH  033%=      5-min Rain = 0
KWA1 102151Z 06009KT 29/11 A3014 RMK A01 T02880113  RH  034%=      5-min Rain = 0
KWA1 102152Z 07009KT 29/11 A3014 RMK A01 T02890111  RH  033%=      5-min Rain = 0
KWA1 102153Z 07007KT 29/11 A3014 RMK A01 T02890109  RH  033%=      5-min Rain = 0
KWA1 102154Z 06008KT 29/11 A3014 RMK A01 T02900107  RH  032%=      5-min Rain = 0
KWA1 102155Z 06006KT 29/11 A3014 RMK A01 T02880108  RH  033%=      5-min Rain = 0
KWA1 102156Z 05005KT 29/10 A3014 RMK A01 T02880104  RH  032%=      5-min Rain = 0
KWA1 102157Z 07005KT 29/11 A3014 RMK A01 T02880107  RH  032%=      5-min Rain = 0
KWA1 102158Z 06004KT 29/11 A3014 RMK A01 T02880108  RH  033%=      5-min Rain = 0
KWA1 102159Z 05005KT 29/11 A3014 RMK A01 T02880112  RH  034%=      5-min Rain = 0
KWA1 102200Z 09007KT 29/11 A3014 RMK A01 T02900113  RH  034%=      5-min Rain = 0
KWA1 102201Z 07007KT 29/11 A3014 RMK A01 T02910112  RH  033%=      5-min Rain = 0
KWA1 102202Z 08005KT 29/11 A3014 RMK A01 T02910108  RH  032%=      5-min Rain = 0
KWA1 102203Z 06007KT 29/11 A3014 RMK A01 T02910114  RH  034%=      5-min Rain = 0
KWA1 102204Z 05009KT 29/12 A3014 RMK A01 T02910115  RH  034%=      5-min Rain = 0
KWA1 102205Z 06007KT 29/11 A3014 RMK A01 T02910109  RH  032%=      5-min Rain = 0
KWA1 102206Z 05011KT 29/11 A3014 RMK A01 T02900112  RH  033%=      5-min Rain = 0
KWA1 102207Z 05012KT 29/11 A3014 RMK A01 T02890110  RH  033%=      5-min Rain = 0
KWA1 102208Z 06009KT 29/11 A3014 RMK A01 T02890110  RH  033%=      5-min Rain = 0
KWA1 102209Z 06009KT 29/11 A3014 RMK A01 T02880111  RH  033%=      5-min Rain = 0
KWA1 102210Z 07007KT 29/11 A3014 RMK A01 T02870110  RH  033%=      5-min Rain = 0
KWA1 102211Z 06006KT 29/12 A3014 RMK A01 T02870115  RH  035%=      5-min Rain = 0
KWA1 102212Z 06007KT 29/12 A3014 RMK A01 T02880119  RH  035%=      5-min Rain = 0
KWA1 102213Z 05006KT 29/11 A3014 RMK A01 T02900114  RH  034%=      5-min Rain = 0
KWA1 102214Z 04006KT 29/11 A3014 RMK A01 T02900108  RH  032%=      5-min Rain = 0
KWA1 102215Z 04007KT 29/12 A3014 RMK A01 T02890115  RH  034%=      5-min Rain = 0
KWA1 102216Z 04005KT 29/11 A3014 RMK A01 T02890112  RH  033%=      5-min Rain = 0
KWA1 102217Z 07009KT 29/12 A3014 RMK A01 T02890115  RH  034%=      5-min Rain = 0
KWA1 102218Z 05011KT 29/11 A3014 RMK A01 T02900111  RH  033%=      5-min Rain = 0
KWA1 102219Z 05009KT 29/11 A3014 RMK A01 T02880110  RH  033%=      5-min Rain = 0
KWA1 102220Z 05007KT 29/11 A3014 RMK A01 T02870114  RH  034%=      5-min Rain = 0
KWA1 102221Z 06006KT 29/11 A3014 RMK A01 T02870113  RH  034%=      5-min Rain = 0
KWA1 102222Z 04006KT 29/12 A3014 RMK A01 T02870118  RH  035%=      5-min Rain = 0
KWA1 102223Z 05005KT 29/12 A3014 RMK A01 T02890118  RH  035%=      5-min Rain = 0
KWA1 102224Z 08005KT 29/12 A3014 RMK A01 T02900121  RH  035%=      5-min Rain = 0
KWA1 102225Z 07008KT 29/12 A3014 RMK A01 T02910115  RH  034%=      5-min Rain = 0
KWA1 102226Z 06005KT 29/12 A3014 RMK A01 T02900115  RH  034%=      5-min Rain = 0
KWA1 102227Z 06006KT 29/12 A3014 RMK A01 T02890116  RH  034%=      5-min Rain = 0
KWA1 102228Z 05006KT 29/12 A3014 RMK A01 T02890115  RH  034%=      5-min Rain = 0
KWA1 102229Z 05008KT 29/12 A3014 RMK A01 T02890116  RH  034%=      5-min Rain = 0
KWA1 102230Z 05011KT 29/12 A3014 RMK A01 T02890115  RH  034%=      5-min Rain = 0
KWA1 102231Z 05011KT 29/11 A3014 RMK A01 T02890114  RH  034%=      5-min Rain = 0
KWA1 102232Z 05010KT 29/11 A3014 RMK A01 T02890113  RH  034%=      5-min Rain = 0
KWA1 102233Z 05010KT 29/12 A3014 RMK A01 T02890117  RH  035%=      5-min Rain = 0
KWA1 102234Z 05009KT 29/11 A3014 RMK A01 T02890111  RH  033%=      5-min Rain = 0
KWA1 102235Z 04007KT 29/11 A3014 RMK A01 T02870109  RH  033%=      5-min Rain = 0
KWA1 102236Z 04009KT 29/11 A3014 RMK A01 T02870110  RH  033%=      5-min Rain = 0
KWA1 102237Z 04006KT 29/11 A3014 RMK A01 T02870112  RH  034%=      5-min Rain = 0
KWA1 102238Z 03007KT 29/12 A3014 RMK A01 T02880116  RH  035%=      5-min Rain = 0
KWA1 102239Z 04006KT 29/11 A3014 RMK A01 T02890111  RH  033%=      5-min Rain = 0
KWA1 102240Z 04006KT 29/11 A3014 RMK A01 T02890110  RH  033%=      5-min Rain = 0
KWA1 102241Z 03007KT 29/12 A3014 RMK A01 T02890119  RH  035%=      5-min Rain = 0
KWA1 102242Z 04008KT 29/12 A3014 RMK A01 T02900119  RH  035%=      5-min Rain = 0
KWA1 102243Z 05007KT 29/11 A3014 RMK A01 T02900113  RH  033%=      5-min Rain = 0
KWA1 102244Z 06009KT 29/12 A3014 RMK A01 T02890116  RH  034%=      5-min Rain = 0
KWA1 102245Z 04008KT 29/11 A3014 RMK A01 T02890114  RH  034%=      5-min Rain = 0
KWA1 102246Z 06005KT 29/11 A3014 RMK A01 T02880113  RH  034%=      5-min Rain = 0
KWA1 102247Z 05005KT 29/11 A3014 RMK A01 T02870114  RH  034%=      5-min Rain = 0
KWA1 102248Z 06005KT 29/11 A3014 RMK A01 T02870111  RH  034%=      5-min Rain = 0
KWA1 102249Z 08005KT 29/12 A3014 RMK A01 T02870121  RH  036%=      5-min Rain = 0
KWA1 102250Z 09005KT 29/12 A3014 RMK A01 T02880118  RH  035%=      5-min Rain = 0
KWA1 102251Z 10008KT 29/12 A3014 RMK A01 T02890115  RH  034%=      5-min Rain = 0
KWA1 102252Z 09008KT 29/11 A3014 RMK A01 T02890112  RH  033%=      5-min Rain = 0
KWA1 102253Z 10007KT 29/11 A3014 RMK A01 T02890110  RH  033%=      5-min Rain = 0
KWA1 102254Z 10007KT 29/11 A3014 RMK A01 T02890109  RH  033%=      5-min Rain = 0
KWA1 102255Z 11007KT 29/11 A3014 RMK A01 T02890109  RH  033%=      5-min Rain = 0
KWA1 102256Z 11006KT 29/10 A3014 RMK A01 T02890104  RH  032%=      5-min Rain = 0
KWA1 102257Z 11005KT 29/11 A3014 RMK A01 T02880107  RH  032%=      5-min Rain = 0
KWA1 102258Z 09006KT 29/11 A3014 RMK A01 T02880110  RH  033%=      5-min Rain = 0
KWA1 102259Z 10006KT 29/11 A3014 RMK A01 T02890107  RH  032%=      5-min Rain = 0
KWA1 102300Z 08008KT 29/11 A3014 RMK A01 T02880111  RH  033%=      5-min Rain = 0
KWA1 102301Z 07007KT 29/11 A3014 RMK A01 T02890113  RH  034%=      5-min Rain = 0
KWA1 102302Z 08007KT 29/12 A3014 RMK A01 T02880115  RH  034%=      5-min Rain = 0
KWA1 102303Z 08007KT 29/11 A3014 RMK A01 T02890114  RH  034%=      5-min Rain = 0
KWA1 102304Z 07010KT 29/11 A3014 RMK A01 T02890114  RH  034%=      5-min Rain = 0
KWA1 102305Z 07010KT 29/11 A3014 RMK A01 T02890110  RH  033%=      5-min Rain = 0
KWA1 102306Z 07011KT 29/11 A3014 RMK A01 T02870110  RH  033%=      5-min Rain = 0
KWA1 102307Z 06008KT 29/11 A3014 RMK A01 T02870113  RH  034%=      5-min Rain = 0
KWA1 102308Z 06008KT 29/12 A3014 RMK A01 T02870115  RH  034%=      5-min Rain = 0
KWA1 102309Z 06007KT 29/12 A3014 RMK A01 T02860118  RH  035%=      5-min Rain = 0
KWA1 102310Z 07008KT 29/12 A3014 RMK A01 T02870117  RH  035%=      5-min Rain = 0
KWA1 102311Z 07009KT 29/12 A3014 RMK A01 T02870115  RH  034%=      5-min Rain = 0
KWA1 102312Z 07008KT 29/11 A3014 RMK A01 T02870112  RH  034%=      5-min Rain = 0
KWA1 102313Z 08008KT 29/11 A3014 RMK A01 T02870111  RH  034%=      5-min Rain = 0
KWA1 102314Z 07008KT 29/11 A3014 RMK A01 T02860112  RH  034%=      5-min Rain = 0
KWA1 102315Z 06006KT 29/11 A3014 RMK A01 T02860111  RH  034%=      5-min Rain = 0
KWA1 102316Z 06008KT 29/12 A3014 RMK A01 T02860115  RH  035%=      5-min Rain = 0
KWA1 102317Z 07008KT 29/12 A3014 RMK A01 T02860116  RH  035%=      5-min Rain = 0
KWA1 102318Z 08007KT 29/12 A3014 RMK A01 T02860115  RH  034%=      5-min Rain = 0
KWA1 102319Z 10007KT 29/11 A3014 RMK A01 T02860112  RH  034%=      5-min Rain = 0
KWA1 102320Z 09007KT 29/11 A3014 RMK A01 T02860113  RH  034%=      5-min Rain = 0
KWA1 102321Z 10006KT 29/11 A3014 RMK A01 T02860112  RH  034%=      5-min Rain = 0
KWA1 102322Z 09008KT 29/11 A3014 RMK A01 T02860108  RH  033%=      5-min Rain = 0
KWA1 102323Z 08010KT 29/11 A3014 RMK A01 T02860110  RH  034%=      5-min Rain = 0
KWA1 102324Z 07008KT 29/11 A3014 RMK A01 T02860110  RH  034%=      5-min Rain = 0
KWA1 102325Z 07006KT 29/11 A3014 RMK A01 T02850113  RH  034%=      5-min Rain = 0
KWA1 102326Z 07006KT 28/12 A3014 RMK A01 T02840115  RH  035%=      5-min Rain = 0
KWA1 102327Z 08006KT 28/11 A3014 RMK A01 T02840110  RH  034%=      5-min Rain = 0
KWA1 102328Z 06006KT 28/11 A3014 RMK A01 T02840112  RH  034%=      5-min Rain = 0
KWA1 102329Z 06007KT 28/11 A3014 RMK A01 T02830111  RH  034%=      5-min Rain = 0
KWA1 102330Z 07006KT 28/11 A3014 RMK A01 T02840111  RH  034%=      5-min Rain = 0
KWA1 102331Z 08007KT 28/11 A3014 RMK A01 T02840110  RH  034%=      5-min Rain = 0
KWA1 102332Z 09008KT 28/11 A3014 RMK A01 T02830111  RH  034%=      5-min Rain = 0
KWA1 102333Z 10007KT 28/11 A3014 RMK A01 T02830105  RH  033%=      5-min Rain = 0
KWA1 102334Z 09008KT 28/11 A3014 RMK A01 T02830106  RH  033%=      5-min Rain = 0
KWA1 102335Z 10007KT 28/11 A3014 RMK A01 T02830108  RH  034%=      5-min Rain = 0
KWA1 102336Z 09007KT 28/11 A3014 RMK A01 T02840109  RH  034%=      5-min Rain = 0
KWA1 102337Z 09008KT 28/11 A3014 RMK A01 T02840107  RH  033%=      5-min Rain = 0
KWA1 102338Z 08008KT 28/11 A3014 RMK A01 T02840109  RH  034%=      5-min Rain = 0
KWA1 102339Z 08010KT 28/11 A3014 RMK A01 T02830108  RH  034%=      5-min Rain = 0
KWA1 102340Z 09010KT 28/11 A3014 RMK A01 T02830110  RH  034%=      5-min Rain = 0
KWA1 102341Z 09009KT 28/11 A3014 RMK A01 T02830109  RH  034%=      5-min Rain = 0
KWA1 102342Z 09009KT 28/11 A3014 RMK A01 T02830110  RH  034%=      5-min Rain = 0
KWA1 102343Z 08008KT 28/11 A3014 RMK A01 T02830111  RH  034%=      5-min Rain = 0
KWA1 102344Z 08010KT 28/11 A3014 RMK A01 T02820111  RH  035%=      5-min Rain = 0
KWA1 102345Z 07008KT 28/11 A3014 RMK A01 T02820111  RH  035%=      5-min Rain = 0
KWA1 102346Z 08008KT 28/11 A3014 RMK A01 T02820112  RH  035%=      5-min Rain = 0
KWA1 102347Z 08007KT 28/11 A3014 RMK A01 T02810112  RH  035%=      5-min Rain = 0
KWA1 102348Z 07007KT 28/11 A3014 RMK A01 T02810114  RH  035%=      5-min Rain = 0
KWA1 102349Z 07007KT 28/11 A3014 RMK A01 T02810113  RH  035%=      5-min Rain = 0
KWA1 102350Z 07007KT 28/11 A3014 RMK A01 T02810110  RH  035%=      5-min Rain = 0
KWA1 102351Z 07008KT 28/11 A3014 RMK A01 T02800110  RH  035%=      5-min Rain = 0
KWA1 102352Z 07006KT 28/11 A3014 RMK A01 T02800107  RH  034%=      5-min Rain = 0
KWA1 102353Z 08006KT 28/11 A3014 RMK A01 T02800114  RH  036%=      5-min Rain = 0
KWA1 102354Z 08007KT 28/12 A3014 RMK A01 T02790115  RH  036%=      5-min Rain = 0
KWA1 102355Z 08009KT 28/11 A3014 RMK A01 T02790109  RH  035%=      5-min Rain = 0
KWA1 102356Z 08007KT 28/11 A3014 RMK A01 T02790109  RH  035%=      5-min Rain = 0
KWA1 102357Z 09006KT 28/11 A3014 RMK A01 T02780111  RH  035%=      5-min Rain = 0
KWA1 102358Z 09006KT 28/11 A3014 RMK A01 T02780109  RH  035%=      5-min Rain = 0
KWA1 102359Z 09006KT 28/11 A3014 RMK A01 T02780112  RH  036%=      5-min Rain = 0
KWA1 110000Z 09006KT 28/11 A3014 RMK A01 T02780112  RH  036%=      5-min Rain = 0
KWA1 110001Z 09007KT 28/11 A3014 RMK A01 T02770113  RH  036%=      5-min Rain = 0
KWA1 110002Z 09008KT 28/11 A3014 RMK A01 T02770111  RH  036%=      5-min Rain = 0
KWA1 110003Z 09007KT 28/11 A3014 RMK A01 T02760112  RH  036%=      5-min Rain = 0
KWA1 110004Z 09006KT 28/12 A3014 RMK A01 T02760115  RH  037%=      5-min Rain = 0
KWA1 110005Z 08007KT 28/12 A3014 RMK A01 T02760115  RH  037%=      5-min Rain = 0
KWA1 110006Z 09008KT 28/11 A3014 RMK A01 T02750112  RH  036%=      5-min Rain = 0
KWA1 110007Z 09008KT 28/11 A3014 RMK A01 T02750112  RH  036%=      5-min Rain = 0
KWA1 110008Z 09008KT 28/11 A3014 RMK A01 T02750112  RH  036%=      5-min Rain = 0
KWA1 110009Z 09007KT 27/11 A3014 RMK A01 T02740113  RH  037%=      5-min Rain = 0
KWA1 110010Z 10008KT 27/11 A3014 RMK A01 T02730109  RH  036%=      5-min Rain = 0
KWA1 110011Z 10008KT 27/11 A3014 RMK A01 T02740108  RH  035%=      5-min Rain = 0
KWA1 110012Z 10007KT 27/11 A3014 RMK A01 T02730108  RH  035%=      5-min Rain = 0
KWA1 110013Z 10007KT 27/11 A3014 RMK A01 T02740109  RH  036%=      5-min Rain = 0
KWA1 110014Z 10006KT 27/11 A3014 RMK A01 T02730109  RH  036%=      5-min Rain = 0
KWA1 110015Z 10006KT 27/11 A3014 RMK A01 T02730111  RH  036%=      5-min Rain = 0
KWA1 110016Z 10007KT 27/11 A3014 RMK A01 T02720110  RH  036%=      5-min Rain = 0
KWA1 110017Z 10006KT 27/11 A3014 RMK A01 T02720111  RH  037%=      5-min Rain = 0
KWA1 110018Z 09007KT 27/11 A3014 RMK A01 T02710111  RH  037%=      5-min Rain = 0
KWA1 110019Z 09007KT 27/11 A3014 RMK A01 T02710111  RH  037%=      5-min Rain = 0
KWA1 110020Z 09007KT 27/11 A3014 RMK A01 T02700112  RH  037%=      5-min Rain = 0
KWA1 110021Z 09006KT 27/11 A3014 RMK A01 T02690112  RH  037%=      5-min Rain = 0
KWA1 110022Z 09006KT 27/11 A3014 RMK A01 T02680113  RH  038%=      5-min Rain = 0
KWA1 110023Z 09006KT 27/11 A3014 RMK A01 T02670114  RH  038%=      5-min Rain = 0
KWA1 110024Z 09006KT 27/11 A3014 RMK A01 T02670113  RH  038%=      5-min Rain = 0
KWA1 110025Z 09005KT 27/11 A3014 RMK A01 T02660114  RH  039%=      5-min Rain = 0
KWA1 110026Z 09006KT 27/12 A3014 RMK A01 T02650115  RH  039%=      5-min Rain = 0
KWA1 110027Z 09005KT 26/11 A3014 RMK A01 T02640114  RH  039%=      5-min Rain = 0
KWA1 110028Z 09006KT 26/12 A3014 RMK A01 T02640115  RH  039%=      5-min Rain = 0
KWA1 110029Z 09005KT 26/12 A3014 RMK A01 T02630116  RH  040%=      5-min Rain = 0
KWA1 110030Z 09006KT 26/12 A3014 RMK A01 T02620116  RH  040%=      5-min Rain = 0
KWA1 110031Z 09006KT 26/12 A3014 RMK A01 T02610116  RH  040%=      5-min Rain = 0
KWA1 110032Z 10006KT 26/12 A3014 RMK A01 T02600117  RH  041%=      5-min Rain = 0
KWA1 110033Z 10005KT 26/12 A3014 RMK A01 T02590117  RH  041%=      5-min Rain = 0
KWA1 110034Z 09006KT 26/12 A3014 RMK A01 T02580117  RH  041%=      5-min Rain = 0
KWA1 110035Z 10006KT 26/12 A3014 RMK A01 T02570117  RH  042%=      5-min Rain = 0
KWA1 110036Z 10005KT 26/12 A3014 RMK A01 T02560116  RH  042%=      5-min Rain = 0
KWA1 110037Z 10005KT 26/12 A3014 RMK A01 T02560116  RH  042%=      5-min Rain = 0
KWA1 110038Z 10005KT 26/12 A3014 RMK A01 T02550117  RH  042%=      5-min Rain = 0
KWA1 110039Z 10006KT 25/12 A3014 RMK A01 T02540116  RH  042%=      5-min Rain = 0
KWA1 110040Z 10006KT 25/12 A3014 RMK A01 T02540116  RH  042%=      5-min Rain = 0
KWA1 110041Z 10006KT 25/12 A3014 RMK A01 T02530115  RH  042%=      5-min Rain = 0
KWA1 110042Z 10006KT 25/12 A3014 RMK A01 T02520115  RH  042%=      5-min Rain = 0
KWA1 110043Z 10006KT 25/12 A3014 RMK A01 T02520115  RH  042%=      5-min Rain = 0
KWA1 110044Z 10005KT 25/12 A3014 RMK A01 T02510115  RH  042%=      5-min Rain = 0
KWA1 110045Z 10006KT 25/12 A3014 RMK A01 T02510115  RH  043%=      5-min Rain = 0
KWA1 110046Z 10005KT 25/12 A3014 RMK A01 T02500115  RH  043%=      5-min Rain = 0
KWA1 110047Z 10006KT 25/12 A3014 RMK A01 T02490115  RH  043%=      5-min Rain = 0
KWA1 110048Z 10005KT 25/12 A3014 RMK A01 T02480115  RH  043%=      5-min Rain = 0
KWA1 110049Z 10005KT 25/12 A3014 RMK A01 T02470115  RH  044%=      5-min Rain = 0
KWA1 110050Z 10005KT 25/12 A3014 RMK A01 T02460115  RH  044%=      5-min Rain = 0
KWA1 110051Z 10005KT 25/12 A3014 RMK A01 T02450116  RH  044%=      5-min Rain = 0
KWA1 110052Z 10005KT 24/12 A3014 RMK A01 T02440116  RH  045%=      5-min Rain = 0
KWA1 110053Z 10005KT 24/12 A3014 RMK A01 T02430116  RH  045%=      5-min Rain = 0
KWA1 110054Z 10005KT 24/12 A3014 RMK A01 T02420116  RH  045%=      5-min Rain = 0
KWA1 110055Z 10005KT 24/12 A3014 RMK A01 T02410116  RH  046%=      5-min Rain = 0
KWA1 110056Z 10005KT 24/12 A3014 RMK A01 T02400116  RH  046%=      5-min Rain = 0
KWA1 110057Z 10005KT 24/12 A3014 RMK A01 T02390116  RH  046%=      5-min Rain = 0
KWA1 110058Z 10005KT 24/12 A3014 RMK A01 T02380116  RH  046%=      5-min Rain = 0
KWA1 110059Z 10005KT 24/12 A3014 RMK A01 T02370115  RH  046%=      5-min Rain = 0
KWA1 110100Z 10005KT 24/12 A3014 RMK A01 T02360116  RH  047%=      5-min Rain = 0
KWA1 110101Z 10005KT 24/12 A3014 RMK A01 T02360115  RH  047%=      5-min Rain = 0
KWA1 110102Z 10005KT 24/12 A3014 RMK A01 T02360115  RH  047%=      5-min Rain = 0
KWA1 110103Z 10005KT 24/12 A3014 RMK A01 T02360115  RH  047%=      5-min Rain = 0
KWA1 110104Z 10005KT 24/11 A3014 RMK A01 T02360114  RH  046%=      5-min Rain = 0
KWA1 110105Z 10005KT 24/11 A3014 RMK A01 T02360114  RH  046%=      5-min Rain = 0
KWA1 110106Z 10005KT 24/11 A3014 RMK A01 T02360114  RH  046%=      5-min Rain = 0
KWA1 110107Z 10005KT 24/11 A3014 RMK A01 T02360114  RH  046%=      5-min Rain = 0
KWA1 110108Z 10005KT 24/11 A3014 RMK A01 T02360114  RH  047%=      5-min Rain = 0
KWA1 110109Z 09006KT 23/12 A3014 RMK A01 T02340115  RH  047%=      5-min Rain = 0
KWA1 110110Z 10006KT 23/12 A3014 RMK A01 T02320115  RH  048%=      5-min Rain = 0
KWA1 110111Z 10006KT 23/12 A3014 RMK A01 T02300115  RH  048%=      5-min Rain = 0
KWA1 110112Z 10006KT 23/11 A3014 RMK A01 T02290114  RH  048%=      5-min Rain = 0
KWA1 110113Z 10006KT 23/11 A3014 RMK A01 T02290114  RH  048%=      5-min Rain = 0
KWA1 110114Z 10005KT 23/12 A3014 RMK A01 T02290115  RH  049%=      5-min Rain = 0
KWA1 110115Z 10005KT 23/11 A3014 RMK A01 T02280114  RH  049%=      5-min Rain = 0
KWA1 110116Z 10005KT 23/12 A3014 RMK A01 T02280115  RH  049%=      5-min Rain = 0
KWA1 110117Z 11005KT 23/12 A3014 RMK A01 T02280115  RH  049%=      5-min Rain = 0
KWA1 110118Z 11005KT 23/11 A3014 RMK A01 T02270114  RH  049%=      5-min Rain = 0
KWA1 110119Z 11005KT 23/11 A3014 RMK A01 T02270113  RH  049%=      5-min Rain = 0
KWA1 110120Z 10005KT 23/11 A3014 RMK A01 T02280114  RH  048%=      5-min Rain = 0
KWA1 110121Z 10005KT 23/11 A3014 RMK A01 T02280113  RH  048%=      5-min Rain = 0
KWA1 110122Z 10005KT 23/11 A3014 RMK A01 T02290114  RH  048%=      5-min Rain = 0
KWA1 110123Z 10005KT 23/11 A3014 RMK A01 T02290114  RH  048%=      5-min Rain = 0
KWA1 110124Z 10006KT 23/11 A3014 RMK A01 T02300114  RH  048%=      5-min Rain = 0
KWA1 110125Z 10006KT 23/11 A3014 RMK A01 T02300114  RH  048%=      5-min Rain = 0
KWA1 110126Z 10005KT 23/11 A3014 RMK A01 T02290114  RH  048%=      5-min Rain = 0
KWA1 110127Z 10005KT 23/11 A3014 RMK A01 T02290114  RH  048%=      5-min Rain = 0
KWA1 110128Z 10006KT 23/11 A3014 RMK A01 T02280114  RH  048%=      5-min Rain = 0
KWA1 110129Z 10006KT 23/11 A3014 RMK A01 T02280114  RH  048%=      5-min Rain = 0
KWA1 110130Z 10006KT 23/11 A3014 RMK A01 T02270114  RH  049%=      5-min Rain = 0
KWA1 110131Z 10006KT 23/11 A3014 RMK A01 T02260114  RH  049%=      5-min Rain = 0
KWA1 110132Z 10006KT 23/11 A3014 RMK A01 T02260113  RH  049%=      5-min Rain = 0
KWA1 110133Z 10006KT 23/11 A3014 RMK A01 T02260113  RH  049%=      5-min Rain = 0
KWA1 110134Z 10006KT 23/11 A3014 RMK A01 T02260112  RH  048%=      5-min Rain = 0
KWA1 110135Z 11006KT 23/11 A3014 RMK A01 T02270112  RH  048%=      5-min Rain = 0
KWA1 110136Z 10006KT 23/11 A3014 RMK A01 T02280112  RH  048%=      5-min Rain = 0
KWA1 110137Z 10006KT 23/11 A3014 RMK A01 T02280111  RH  048%=      5-min Rain = 0
KWA1 110138Z 11007KT 23/11 A3014 RMK A01 T02290111  RH  047%=      5-min Rain = 0
KWA1 110139Z 10006KT 23/11 A3015 RMK A01 T02290110  RH  047%=      5-min Rain = 0
KWA1 110140Z 10006KT 23/11 A3015 RMK A01 T02290112  RH  047%=      5-min Rain = 0
KWA1 110141Z 10006KT 23/11 A3015 RMK A01 T02270112  RH  048%=      5-min Rain = 0
KWA1 110142Z 10006KT 23/11 A3015 RMK A01 T02250113  RH  049%=      5-min Rain = 0
KWA1 110143Z 11006KT 22/11 A3015 RMK A01 T02220112  RH  050%=      5-min Rain = 0
KWA1 110144Z 11006KT 22/11 A3015 RMK A01 T02210111  RH  049%=      5-min Rain = 0
KWA1 110145Z 11006KT 22/11 A3015 RMK A01 T02230111  RH  049%=      5-min Rain = 0
KWA1 110146Z 11006KT 22/11 A3015 RMK A01 T02240110  RH  048%=      5-min Rain = 0
KWA1 110147Z 11006KT 23/11 A3015 RMK A01 T02260110  RH  048%=      5-min Rain = 0
KWA1 110148Z 11006KT 23/11 A3015 RMK A01 T02270109  RH  047%=      5-min Rain = 0
KWA1 110149Z 11005KT 23/11 A3015 RMK A01 T02280109  RH  047%=      5-min Rain = 0
KWA1 110150Z 10006KT 23/11 A3015 RMK A01 T02290109  RH  047%=      5-min Rain = 0
KWA1 110151Z 10006KT 23/11 A3015 RMK A01 T02290109  RH  047%=      5-min Rain = 0
KWA1 110152Z 10006KT 23/11 A3015 RMK A01 T02280109  RH  047%=      5-min Rain = 0
KWA1 110153Z 10006KT 23/11 A3015 RMK A01 T02280109  RH  047%=      5-min Rain = 0
KWA1 110154Z 10006KT 23/11 A3015 RMK A01 T02270110  RH  047%=      5-min Rain = 0
KWA1 110155Z 11006KT 23/11 A3015 RMK A01 T02260110  RH  048%=      5-min Rain = 0
KWA1 110156Z 10006KT 22/11 A3015 RMK A01 T02240109  RH  048%=      5-min Rain = 0
KWA1 110157Z 10006KT 22/11 A3015 RMK A01 T02240109  RH  048%=      5-min Rain = 0
KWA1 110158Z 11006KT 22/11 A3015 RMK A01 T02240109  RH  048%=      5-min Rain = 0
KWA1 110159Z 11006KT 22/11 A3015 RMK A01 T02240109  RH  048%=      5-min Rain = 0
KWA1 110200Z 11006KT 22/11 A3015 RMK A01 T02240108  RH  048%=      5-min Rain = 0
KWA1 110201Z 11006KT 22/11 A3015 RMK A01 T02240108  RH  048%=      5-min Rain = 0
KWA1 110202Z 11006KT 23/11 A3015 RMK A01 T02250108  RH  047%=      5-min Rain = 0
KWA1 110203Z 11006KT 23/11 A3015 RMK A01 T02250108  RH  047%=      5-min Rain = 0
KWA1 110204Z 11005KT 23/11 A3015 RMK A01 T02250108  RH  048%=      5-min Rain = 0
KWA1 110205Z 11005KT 22/11 A3015 RMK A01 T02240108  RH  048%=      5-min Rain = 0
KWA1 110206Z 11005KT 22/11 A3016 RMK A01 T02230108  RH  048%=      5-min Rain = 0
KWA1 110207Z 11005KT 22/11 A3016 RMK A01 T02230108  RH  048%=      5-min Rain = 0
KWA1 110208Z 11005KT 22/11 A3016 RMK A01 T02220108  RH  049%=      5-min Rain = 0
KWA1 110209Z 11006KT 22/11 A3016 RMK A01 T02210109  RH  049%=      5-min Rain = 0
KWA1 110210Z 11005KT 22/11 A3016 RMK A01 T02200109  RH  049%=      5-min Rain = 0
KWA1 110211Z 11005KT 22/11 A3016 RMK A01 T02200109  RH  050%=      5-min Rain = 0
KWA1 110212Z 11005KT 22/11 A3016 RMK A01 T02180109  RH  050%=      5-min Rain = 0
KWA1 110213Z 11005KT 22/11 A3016 RMK A01 T02170109  RH  050%=      5-min Rain = 0
KWA1 110214Z 11005KT 22/11 A3016 RMK A01 T02160110  RH  051%=      5-min Rain = 0
KWA1 110215Z 11005KT 22/11 A3016 RMK A01 T02150110  RH  051%=      5-min Rain = 0
KWA1 110216Z 11005KT 21/11 A3016 RMK A01 T02140110  RH  051%=      5-min Rain = 0
KWA1 110217Z 11005KT 21/11 A3016 RMK A01 T02130110  RH  052%=      5-min Rain = 0
KWA1 110218Z 11005KT 21/11 A3016 RMK A01 T02120110  RH  052%=      5-min Rain = 0
KWA1 110219Z 11005KT 21/11 A3016 RMK A01 T02110110  RH  052%=      5-min Rain = 0
KWA1 110220Z 11005KT 21/11 A3016 RMK A01 T02100110  RH  053%=      5-min Rain = 0
KWA1 110221Z 11005KT 21/11 A3016 RMK A01 T02110110  RH  053%=      5-min Rain = 0
KWA1 110222Z 11005KT 21/11 A3016 RMK A01 T02100110  RH  053%=      5-min Rain = 0
KWA1 110223Z 11005KT 21/11 A3016 RMK A01 T02090109  RH  053%=      5-min Rain = 0
KWA1 110224Z 11005KT 21/11 A3016 RMK A01 T02090109  RH  053%=      5-min Rain = 0
KWA1 110225Z 11005KT 21/11 A3016 RMK A01 T02100110  RH  053%=      5-min Rain = 0
KWA1 110226Z 11005KT 21/11 A3016 RMK A01 T02090111  RH  053%=      5-min Rain = 0
KWA1 110227Z 11005KT 21/11 A3016 RMK A01 T02070111  RH  054%=      5-min Rain = 0
KWA1 110228Z 11005KT 21/11 A3016 RMK A01 T02060111  RH  054%=      5-min Rain = 0
KWA1 110229Z 11005KT 21/11 A3016 RMK A01 T02050111  RH  055%=      5-min Rain = 0
KWA1 110230Z 11005KT 20/11 A3016 RMK A01 T02030111  RH  055%=      5-min Rain = 0
KWA1 110231Z 11005KT 20/11 A3016 RMK A01 T02030111  RH  055%=      5-min Rain = 0
KWA1 110232Z 11005KT 20/11 A3016 RMK A01 T02020111  RH  056%=      5-min Rain = 0
KWA1 110233Z 11005KT 20/11 A3016 RMK A01 T02020111  RH  056%=      5-min Rain = 0
KWA1 110234Z 11005KT 20/11 A3016 RMK A01 T02010111  RH  056%=      5-min Rain = 0
KWA1 110235Z 11005KT 20/11 A3016 RMK A01 T02010111  RH  056%=      5-min Rain = 0
KWA1 110236Z 11005KT 20/11 A3016 RMK A01 T02000112  RH  057%=      5-min Rain = 0
KWA1 110237Z 11005KT 20/11 A3016 RMK A01 T01990112  RH  057%=      5-min Rain = 0
KWA1 110238Z 11005KT 20/11 A3016 RMK A01 T01990112  RH  057%=      5-min Rain = 0
KWA1 110239Z 11005KT 20/11 A3016 RMK A01 T01970112  RH  058%=      5-min Rain = 0
KWA1 110240Z 11005KT 20/11 A3016 RMK A01 T01960113  RH  058%=      5-min Rain = 0
KWA1 110241Z 11005KT 20/11 A3016 RMK A01 T01950113  RH  059%=      5-min Rain = 0
KWA1 110242Z 11005KT 20/11 A3016 RMK A01 T01950113  RH  059%=      5-min Rain = 0
KWA1 110243Z 11004KT 19/11 A3016 RMK A01 T01940113  RH  059%=      5-min Rain = 0
KWA1 110244Z 11004KT 19/11 A3016 RMK A01 T01940113  RH  059%=      5-min Rain = 0
KWA1 110245Z 11004KT 19/11 A3016 RMK A01 T01930113  RH  060%=      5-min Rain = 0
KWA1 110246Z 11004KT 19/11 A3016 RMK A01 T01930113  RH  060%=      5-min Rain = 0
KWA1 110247Z 11004KT 19/11 A3016 RMK A01 T01920113  RH  060%=      5-min Rain = 0
KWA1 110248Z 11004KT 19/11 A3016 RMK A01 T01920113  RH  060%=      5-min Rain = 0
KWA1 110249Z 11005KT 19/11 A3016 RMK A01 T01920113  RH  060%=      5-min Rain = 0
KWA1 110250Z 11004KT 19/11 A3016 RMK A01 T01910113  RH  061%=      5-min Rain = 0
KWA1 110251Z 11004KT 19/11 A3016 RMK A01 T01900113  RH  061%=      5-min Rain = 0
KWA1 110252Z 11005KT 19/11 A3016 RMK A01 T01900113  RH  061%=      5-min Rain = 0
KWA1 110253Z 11005KT 19/11 A3016 RMK A01 T01900113  RH  061%=      5-min Rain = 0
KWA1 110254Z 11005KT 19/11 A3016 RMK A01 T01900113  RH  061%=      5-min Rain = 0
KWA1 110255Z 11005KT 19/11 A3016 RMK A01 T01890112  RH  061%=      5-min Rain = 0
KWA1 110256Z 11005KT 19/11 A3016 RMK A01 T01890112  RH  061%=      5-min Rain = 0
KWA1 110257Z 11005KT 19/11 A3016 RMK A01 T01890112  RH  061%=      5-min Rain = 0
KWA1 110258Z 11005KT 19/11 A3016 RMK A01 T01890111  RH  060%=      5-min Rain = 0
KWA1 110259Z 11005KT 19/11 A3016 RMK A01 T01900111  RH  060%=      5-min Rain = 0
KWA1 110300Z 11005KT 19/11 A3016 RMK A01 T01900111  RH  060%=      5-min Rain = 0
KWA1 110301Z 11005KT 19/11 A3016 RMK A01 T01900110  RH  060%=      5-min Rain = 0
KWA1 110302Z 11005KT 19/11 A3016 RMK A01 T01910111  RH  060%=      5-min Rain = 0
KWA1 110303Z 11005KT 19/11 A3016 RMK A01 T01910111  RH  060%=      5-min Rain = 0
KWA1 110304Z 11005KT 19/11 A3016 RMK A01 T01910110  RH  059%=      5-min Rain = 0
KWA1 110305Z 11004KT 19/11 A3017 RMK A01 T01910110  RH  059%=      5-min Rain = 0
KWA1 110306Z 11004KT 19/11 A3017 RMK A01 T01900110  RH  060%=      5-min Rain = 0
KWA1 110307Z 11004KT 19/11 A3017 RMK A01 T01900110  RH  060%=      5-min Rain = 0
KWA1 110308Z 11004KT 19/11 A3017 RMK A01 T01900110  RH  060%=      5-min Rain = 0
KWA1 110309Z 10004KT 19/11 A3017 RMK A01 T01890110  RH  060%=      5-min Rain = 0
KWA1 110310Z 10004KT 19/11 A3017 RMK A01 T01880110  RH  060%=      5-min Rain = 0
KWA1 110311Z 10004KT 19/11 A3017 RMK A01 T01880110  RH  060%=      5-min Rain = 0
KWA1 110312Z 11004KT 19/11 A3017 RMK A01 T01880110  RH  061%=      5-min Rain = 0
KWA1 110313Z 11004KT 19/11 A3017 RMK A01 T01870110  RH  061%=      5-min Rain = 0
KWA1 110314Z 11005KT 19/11 A3017 RMK A01 T01870110  RH  061%=      5-min Rain = 0
KWA1 110315Z 11004KT 19/11 A3017 RMK A01 T01860110  RH  061%=      5-min Rain = 0
KWA1 110316Z 11004KT 19/11 A3017 RMK A01 T01860110  RH  061%=      5-min Rain = 0
KWA1 110317Z 11004KT 19/11 A3017 RMK A01 T01850110  RH  062%=      5-min Rain = 0
KWA1 110318Z 11004KT 19/11 A3017 RMK A01 T01850110  RH  062%=      5-min Rain = 0
KWA1 110319Z 11004KT 19/11 A3017 RMK A01 T01850110  RH  062%=      5-min Rain = 0
KWA1 110320Z 11004KT 19/11 A3017 RMK A01 T01850110  RH  062%=      5-min Rain = 0
KWA1 110321Z 10004KT 19/11 A3017 RMK A01 T01850110  RH  062%=      5-min Rain = 0
KWA1 110322Z 10004KT 19/11 A3017 RMK A01 T01850110  RH  062%=      5-min Rain = 0
KWA1 110323Z 10004KT 19/11 A3017 RMK A01 T01850110  RH  062%=      5-min Rain = 0
KWA1 110324Z 11004KT 19/11 A3017 RMK A01 T01850109  RH  062%=      5-min Rain = 0
KWA1 110325Z 11004KT 19/11 A3017 RMK A01 T01850110  RH  061%=      5-min Rain = 0
KWA1 110326Z 11004KT 19/11 A3017 RMK A01 T01850109  RH  061%=      5-min Rain = 0
KWA1 110327Z 11004KT 19/11 A3017 RMK A01 T01850109  RH  061%=      5-min Rain = 0
KWA1 110328Z 11004KT 19/11 A3017 RMK A01 T01850109  RH  061%=      5-min Rain = 0
KWA1 110329Z 11004KT 19/11 A3017 RMK A01 T01850109  RH  061%=      5-min Rain = 0
KWA1 110330Z 11004KT 18/11 A3017 RMK A01 T01840108  RH  061%=      5-min Rain = 0
KWA1 110331Z 11004KT 18/11 A3017 RMK A01 T01840109  RH  061%=      5-min Rain = 0
KWA1 110332Z 11004KT 18/11 A3017 RMK A01 T01840109  RH  061%=      5-min Rain = 0
KWA1 110333Z 10004KT 19/11 A3017 RMK A01 T01850109  RH  061%=      5-min Rain = 0
KWA1 110334Z 10004KT 19/11 A3017 RMK A01 T01850109  RH  061%=      5-min Rain = 0
KWA1 110335Z 10004KT 19/11 A3017 RMK A01 T01850109  RH  061%=      5-min Rain = 0
KWA1 110336Z 10005KT 19/11 A3017 RMK A01 T01850110  RH  061%=      5-min Rain = 0
KWA1 110337Z 10004KT 19/11 A3017 RMK A01 T01850110  RH  062%=      5-min Rain = 0
KWA1 110338Z 10004KT 19/11 A3017 RMK A01 T01850111  RH  062%=      5-min Rain = 0
KWA1 110339Z 10004KT 18/11 A3017 RMK A01 T01840110  RH  062%=      5-min Rain = 0
KWA1 110340Z 10005KT 18/11 A3017 RMK A01 T01830110  RH  062%=      5-min Rain = 0
KWA1 110341Z 10005KT 18/11 A3017 RMK A01 T01820110  RH  063%=      5-min Rain = 0
KWA1 110342Z 10004KT 18/11 A3017 RMK A01 T01820110  RH  063%=      5-min Rain = 0
KWA1 110343Z 10005KT 18/11 A3017 RMK A01 T01820110  RH  063%=      5-min Rain = 0
KWA1 110344Z 10004KT 18/11 A3017 RMK A01 T01820110  RH  063%=      5-min Rain = 0
KWA1 110345Z 10005KT 18/11 A3017 RMK A01 T01820110  RH  063%=      5-min Rain = 0
KWA1 110346Z 10005KT 18/11 A3017 RMK A01 T01820110  RH  063%=      5-min Rain = 0
KWA1 110347Z 10005KT 18/11 A3017 RMK A01 T01820111  RH  063%=      5-min Rain = 0
KWA1 110348Z 10005KT 18/11 A3017 RMK A01 T01820111  RH  063%=      5-min Rain = 0
KWA1 110349Z 10005KT 18/11 A3017 RMK A01 T01820110  RH  063%=      5-min Rain = 0
KWA1 110350Z 10005KT 18/11 A3017 RMK A01 T01820110  RH  063%=      5-min Rain = 0
KWA1 110351Z 11005KT 18/11 A3017 RMK A01 T01820109  RH  062%=      5-min Rain = 0
KWA1 110352Z 10005KT 18/11 A3017 RMK A01 T01820109  RH  062%=      5-min Rain = 0
KWA1 110353Z 11005KT 18/11 A3017 RMK A01 T01830109  RH  062%=      5-min Rain = 0
KWA1 110354Z 10005KT 18/11 A3018 RMK A01 T01830109  RH  062%=      5-min Rain = 0
KWA1 110355Z 10005KT 18/11 A3018 RMK A01 T01820109  RH  062%=      5-min Rain = 0
KWA1 110356Z 10005KT 18/11 A3018 RMK A01 T01820109  RH  062%=      5-min Rain = 0
KWA1 110357Z 11005KT 18/11 A3018 RMK A01 T01820109  RH  062%=      5-min Rain = 0
KWA1 110358Z 10005KT 18/11 A3018 RMK A01 T01820109  RH  062%=      5-min Rain = 0
KWA1 110359Z 11005KT 18/11 A3018 RMK A01 T01820109  RH  062%=      5-min Rain = 0
KWA1 110400Z 10005KT 18/11 A3018 RMK A01 T01820110  RH  063%=      5-min Rain = 0
KWA1 110401Z 11005KT 18/11 A3018 RMK A01 T01810109  RH  063%=      5-min Rain = 0
KWA1 110402Z 10006KT 18/11 A3018 RMK A01 T01820109  RH  063%=      5-min Rain = 0
KWA1 110403Z 10006KT 18/11 A3018 RMK A01 T01820109  RH  062%=      5-min Rain = 0
KWA1 110404Z 10006KT 18/11 A3018 RMK A01 T01830109  RH  062%=      5-min Rain = 0
KWA1 110405Z 10006KT 19/11 A3018 RMK A01 T01850108  RH  061%=      5-min Rain = 0
KWA1 110406Z 10006KT 19/11 A3018 RMK A01 T01860109  RH  061%=      5-min Rain = 0
KWA1 110407Z 10006KT 19/11 A3018 RMK A01 T01870108  RH  060%=      5-min Rain = 0
KWA1 110408Z 11006KT 19/11 A3018 RMK A01 T01880108  RH  060%=      5-min Rain = 0
KWA1 110409Z 11005KT 19/11 A3018 RMK A01 T01890108  RH  059%=      5-min Rain = 0
KWA1 110410Z 11006KT 19/11 A3018 RMK A01 T01900108  RH  059%=      5-min Rain = 0
KWA1 110411Z 11006KT 19/11 A3018 RMK A01 T01900107  RH  059%=      5-min Rain = 0
KWA1 110412Z 11006KT 19/11 A3018 RMK A01 T01900108  RH  059%=      5-min Rain = 0
KWA1 110413Z 11005KT 19/11 A3018 RMK A01 T01890108  RH  059%=      5-min Rain = 0
KWA1 110414Z 11006KT 19/11 A3018 RMK A01 T01870108  RH  060%=      5-min Rain = 0
KWA1 110415Z 11006KT 19/11 A3018 RMK A01 T01860108  RH  060%=      5-min Rain = 0
KWA1 110416Z 11006KT 18/11 A3018 RMK A01 T01830108  RH  061%=      5-min Rain = 0
KWA1 110417Z 11006KT 18/11 A3018 RMK A01 T01820107  RH  062%=      5-min Rain = 0
KWA1 110418Z 11006KT 18/11 A3018 RMK A01 T01810108  RH  062%=      5-min Rain = 0
KWA1 110419Z 11006KT 18/11 A3018 RMK A01 T01790108  RH  063%=      5-min Rain = 0
KWA1 110420Z 12006KT 18/11 A3018 RMK A01 T01780107  RH  063%=      5-min Rain = 0
KWA1 110421Z 12006KT 18/11 A3018 RMK A01 T01770108  RH  064%=      5-min Rain = 0
KWA1 110422Z 12006KT 18/11 A3018 RMK A01 T01760108  RH  064%=      5-min Rain = 0
KWA1 110423Z 12005KT 18/11 A3018 RMK A01 T01750108  RH  064%=      5-min Rain = 0
KWA1 110424Z 12005KT 18/11 A3018 RMK A01 T01750108  RH  065%=      5-min Rain = 0
KWA1 110425Z 12006KT 17/11 A3018 RMK A01 T01740108  RH  065%=      5-min Rain = 0
KWA1 110426Z 12006KT 17/11 A3018 RMK A01 T01730108  RH  065%=      5-min Rain = 0
KWA1 110427Z 12006KT 17/11 A3018 RMK A01 T01730108  RH  066%=      5-min Rain = 0
KWA1 110428Z 13006KT 17/11 A3018 RMK A01 T01720109  RH  066%=      5-min Rain = 0
KWA1 110429Z 13005KT 17/11 A3018 RMK A01 T01710109  RH  066%=      5-min Rain = 0
KWA1 110430Z 13005KT 17/11 A3018 RMK A01 T01700108  RH  067%=      5-min Rain = 0
KWA1 110431Z 13005KT 17/11 A3018 RMK A01 T01700108  RH  067%=      5-min Rain = 0
KWA1 110432Z 13005KT 17/11 A3018 RMK A01 T01690108  RH  067%=      5-min Rain = 0
KWA1 110433Z 12005KT 17/11 A3018 RMK A01 T01690108  RH  068%=      5-min Rain = 0
KWA1 110434Z 12005KT 17/11 A3018 RMK A01 T01680109  RH  068%=      5-min Rain = 0
KWA1 110435Z 12005KT 17/11 A3018 RMK A01 T01680109  RH  068%=      5-min Rain = 0
KWA1 110436Z 12005KT 17/11 A3018 RMK A01 T01680109  RH  068%=      5-min Rain = 0
KWA1 110437Z 12005KT 17/11 A3018 RMK A01 T01670109  RH  068%=      5-min Rain = 0
KWA1 110438Z 12005KT 17/11 A3018 RMK A01 T01680109  RH  068%=      5-min Rain = 0
KWA1 110439Z 12005KT 17/11 A3018 RMK A01 T01670109  RH  068%=      5-min Rain = 0
KWA1 110440Z 12005KT 17/11 A3018 RMK A01 T01670108  RH  068%=      5-min Rain = 0
KWA1 110441Z 13005KT 17/11 A3018 RMK A01 T01670109  RH  068%=      5-min Rain = 0
KWA1 110442Z 13005KT 17/11 A3018 RMK A01 T01670109  RH  068%=      5-min Rain = 0
KWA1 110443Z 13006KT 17/11 A3018 RMK A01 T01670109  RH  069%=      5-min Rain = 0
KWA1 110444Z 13006KT 17/11 A3018 RMK A01 T01660109  RH  069%=      5-min Rain = 0
KWA1 110445Z 13005KT 17/11 A3018 RMK A01 T01650109  RH  069%=      5-min Rain = 0
KWA1 110446Z 13006KT 17/11 A3018 RMK A01 T01650109  RH  070%=      5-min Rain = 0
KWA1 110447Z 12005KT 17/11 A3018 RMK A01 T01650109  RH  070%=      5-min Rain = 0
KWA1 110448Z 12005KT 16/11 A3018 RMK A01 T01640109  RH  070%=      5-min Rain = 0
KWA1 110449Z 12005KT 16/11 A3018 RMK A01 T01640109  RH  070%=      5-min Rain = 0
KWA1 110450Z 12005KT 16/11 A3018 RMK A01 T01640109  RH  070%=      5-min Rain = 0
KWA1 110451Z 12005KT 17/11 A3018 RMK A01 T01650110  RH  070%=      5-min Rain = 0
KWA1 110452Z 13005KT 17/11 A3018 RMK A01 T01650109  RH  070%=      5-min Rain = 0
KWA1 110453Z 13005KT 17/11 A3018 RMK A01 T01650110  RH  070%=      5-min Rain = 0
KWA1 110454Z 13005KT 16/11 A3018 RMK A01 T01640110  RH  070%=      5-min Rain = 0
KWA1 110455Z 13005KT 16/11 A3018 RMK A01 T01640109  RH  070%=      5-min Rain = 0
KWA1 110456Z 13005KT 16/11 A3018 RMK A01 T01640109  RH  070%=      5-min Rain = 0
KWA1 110457Z 13005KT 16/11 A3018 RMK A01 T01640110  RH  070%=      5-min Rain = 0
KWA1 110458Z 13005KT 16/11 A3018 RMK A01 T01640110  RH  071%=      5-min Rain = 0
KWA1 110459Z 13005KT 16/11 A3018 RMK A01 T01640110  RH  071%=      5-min Rain = 0

Page generated in 0.1221 seconds.